M I D A S
Marine Information and Data Acquisition System
Tripno 1974 of the Zeeleeuw from 2010-10-18 06:53:57 to 2010-10-18 15:41:18
Back to CruiseResearch ActivitiesStationsMapUnderway DataData graphs

EquipmentUnitsComment
TimeDGPSUTC
LatitudeDGPSDM.mWGS84
LongitudeDGPSDM.mWGS84
TemperatureSBE03/SBE38deg celciusITS90
ConductivitySBE21S/mITS90
SalinitySBE21 Practical Salinity Units
ChlorophylAChelsea fluorimeterg/lCalibrated in Aceton
Missing or incorrect values are displayed as -999
Sea surface data collected by the RV Zeeleeuw from 2010-10-18 06:22:17 to 2010-10-18 15:50:19
                                                                                    Next 1000 lines
Time Latitude Longitude Temperature Conductivity Salinity ChlorophylA
2010-10-18 06:22:27 51°13.662 2°55.959 18.5226 0.066619 0.357198 -0.687152
2010-10-18 06:22:32 51°13.663 2°55.959 18.5237 0.066619 0.357204 -0.687152
2010-10-18 06:22:37 51°13.663 2°55.958 18.5222 0.066619 0.357204 -0.687152
2010-10-18 06:22:42 51°13.663 2°55.958 18.5229 0.066619 0.357209 -0.687152
2010-10-18 06:22:47 51°13.663 2°55.959 18.5229 0.066619 0.357215 -0.721976
2010-10-18 06:22:52 51°13.663 2°55.959 18.523 0.066619 0.357221 -0.652328
2010-10-18 06:22:57 51°13.663 2°55.958 18.5238 0.066619 0.357221 -0.652328
2010-10-18 06:23:02 51°13.663 2°55.958 18.5246 0.066619 0.357221 -0.687152
2010-10-18 06:23:07 51°13.663 2°55.958 18.5251 0.066619 0.357226 -0.652328
2010-10-18 06:23:12 51°13.663 2°55.958 18.5248 0.066619 0.357232 -0.687152
2010-10-18 06:23:17 51°13.663 2°55.958 18.5249 0.066619 0.357237 -0.652328
2010-10-18 06:23:22 51°13.663 2°55.958 18.5247 0.066619 0.357237 -0.687152
2010-10-18 06:23:27 51°13.663 2°55.958 18.5252 0.066619 0.357237 -0.687152
2010-10-18 06:23:32 51°13.663 2°55.958 18.5266 0.066619 0.357243 -0.721976
2010-10-18 06:23:37 51°13.662 2°55.958 18.5258 0.066619 0.357237 -0.652328
2010-10-18 06:23:42 51°13.662 2°55.959 18.5285 0.066619 0.357249 -0.687152
2010-10-18 06:23:47 51°13.662 2°55.959 18.5261 0.066619 0.357249 -0.652328
2010-10-18 06:23:52 51°13.662 2°55.959 18.5267 0.066619 0.35726 -0.687152
2010-10-18 06:23:57 51°13.663 2°55.958 18.5252 0.066619 0.35726 -0.687152
2010-10-18 06:24:02 51°13.663 2°55.958 18.5243 0.066619 0.357265 -0.687152
2010-10-18 06:24:07 51°13.663 2°55.958 18.5233 0.066619 0.357271 -0.687152
2010-10-18 06:24:12 51°13.663 2°55.958 18.5228 0.066619 0.357265 -0.652328
2010-10-18 06:24:17 51°13.663 2°55.958 18.5185 0.066619 0.357271 -0.687152
2010-10-18 06:24:22 51°13.663 2°55.958 18.5147 0.066619 0.357277 -0.652328
2010-10-18 06:24:27 51°13.663 2°55.958 18.5159 0.066619 0.357277 -0.652328
2010-10-18 06:24:32 51°13.663 2°55.959 18.5167 0.066619 0.357282 -0.687152
2010-10-18 06:24:37 51°13.664 2°55.958 18.5193 0.066619 0.357288 -0.687152
2010-10-18 06:24:42 51°13.663 2°55.959 18.5212 0.066619 0.357288 -0.652328
2010-10-18 06:24:47 51°13.663 2°55.959 18.5227 0.066619 0.357293 -0.721976
2010-10-18 06:24:52 51°13.663 2°55.959 18.5248 0.066619 0.357299 -0.687152
2010-10-18 06:24:57 51°13.663 2°55.959 18.5252 0.066619 0.357299 -0.687152
2010-10-18 06:25:02 51°13.664 2°55.959 18.523 0.066619 0.357299 -0.687152
2010-10-18 06:25:07 51°13.664 2°55.959 18.5212 0.066619 0.357305 -0.652328
2010-10-18 06:25:12 51°13.664 2°55.96 18.521 0.066619 0.35731 -0.687152
2010-10-18 06:25:17 51°13.664 2°55.96 18.5199 0.066619 0.357316 -0.687152
2010-10-18 06:25:22 51°13.664 2°55.96 18.5211 0.066619 0.357322 -0.687152
2010-10-18 06:25:27 51°13.664 2°55.96 18.5218 0.066619 0.357322 -0.687152
2010-10-18 06:25:32 51°13.663 2°55.96 18.5232 0.066619 0.357327 -0.687152
2010-10-18 06:25:37 51°13.663 2°55.96 18.5204 0.066619 0.357327 -0.687152
2010-10-18 06:25:42 51°13.663 2°55.96 18.5208 0.066619 0.357333 -0.687152
2010-10-18 06:25:47 51°13.663 2°55.96 18.5225 0.066619 0.357338 -0.652328
2010-10-18 06:25:52 51°13.663 2°55.961 18.5232 0.066619 0.357344 -0.687152
2010-10-18 06:25:57 51°13.663 2°55.961 18.5242 0.066619 0.357344 -0.687152
2010-10-18 06:26:02 51°13.663 2°55.961 18.5245 0.066619 0.357344 -0.687152
2010-10-18 06:26:07 51°13.663 2°55.96 18.5249 0.066619 0.357355 -0.721976
2010-10-18 06:26:12 51°13.663 2°55.961 18.524 0.066619 0.357355 -0.687152
2010-10-18 06:26:17 51°13.663 2°55.961 18.5246 0.066619 0.357361 -0.687152
2010-10-18 06:26:22 51°13.663 2°55.961 18.5256 0.066619 0.357366 -0.687152
2010-10-18 06:26:27 51°13.663 2°55.96 18.5261 0.066619 0.357366 -0.687152
2010-10-18 06:26:32 51°13.663 2°55.96 18.5249 0.066619 0.357372 -0.687152
2010-10-18 06:26:37 51°13.663 2°55.96 18.5244 0.066619 0.357372 -0.652328
2010-10-18 06:26:42 51°13.663 2°55.96 18.5216 0.066619 0.357378 -0.687152
2010-10-18 06:26:47 51°13.663 2°55.96 18.5214 0.066619 0.357378 -0.687152
2010-10-18 06:26:52 51°13.663 2°55.96 18.5232 0.066619 0.357389 -0.687152
2010-10-18 06:26:57 51°13.663 2°55.96 18.5241 0.066619 0.357389 -0.687152
2010-10-18 06:27:02 51°13.663 2°55.959 18.5267 0.066619 0.357394 -0.687152
2010-10-18 06:27:07 51°13.663 2°55.959 18.5281 0.066619 0.357394 -0.687152
2010-10-18 06:27:12 51°13.662 2°55.959 18.5316 0.066619 0.3574 -0.687152
2010-10-18 06:27:17 51°13.662 2°55.959 18.5379 0.066619 0.357406 -0.687152
2010-10-18 06:27:22 51°13.662 2°55.959 18.5342 0.066619 0.357406 -0.687152
2010-10-18 06:27:27 51°13.662 2°55.959 18.5358 0.066619 0.357406 -0.687152
2010-10-18 06:27:32 51°13.662 2°55.959 18.5329 0.066619 0.357411 -0.721976
2010-10-18 06:27:37 51°13.662 2°55.959 18.5331 0.066619 0.357417 -0.687152
2010-10-18 06:27:42 51°13.662 2°55.959 18.5321 0.066619 0.357423 -0.652328
2010-10-18 06:27:47 51°13.662 2°55.959 18.532 0.066619 0.357423 -0.652328
2010-10-18 06:27:52 51°13.662 2°55.959 18.5316 0.066619 0.357434 -0.687152
2010-10-18 06:27:57 51°13.662 2°55.959 18.533 0.066619 0.357434 -0.687152
2010-10-18 06:28:02 51°13.662 2°55.959 18.5342 0.066619 0.357434 -0.687152
2010-10-18 06:28:07 51°13.662 2°55.959 18.5354 0.066619 0.357439 -0.687152
2010-10-18 06:28:12 51°13.662 2°55.959 18.5361 0.066619 0.357445 -0.687152
2010-10-18 06:28:18 51°13.662 2°55.959 18.5331 0.066619 0.357451 -0.687152
2010-10-18 06:28:22 51°13.662 2°55.959 18.5347 0.066619 0.357451 -0.687152
2010-10-18 06:28:27 51°13.663 2°55.959 18.536 0.066619 0.357451 -0.687152
2010-10-18 06:28:32 51°13.663 2°55.959 18.5354 0.066619 0.357462 -0.687152
2010-10-18 06:28:37 51°13.663 2°55.959 18.5356 0.066619 0.357456 -0.687152
2010-10-18 06:28:42 51°13.663 2°55.959 18.5355 0.066619 0.357467 -0.687152
2010-10-18 06:28:47 51°13.663 2°55.959 18.5361 0.066619 0.357467 -0.687152
2010-10-18 06:28:52 51°13.663 2°55.959 18.5354 0.066619 0.357473 -0.687152
2010-10-18 06:28:57 51°13.663 2°55.959 18.5356 0.066619 0.357473 -0.687152
2010-10-18 06:29:02 51°13.663 2°55.959 18.5352 0.066619 0.357479 -0.687152
2010-10-18 06:29:07 51°13.663 2°55.959 18.5361 0.066619 0.357484 -0.687152
2010-10-18 06:29:12 51°13.663 2°55.959 18.5352 0.066619 0.35749 -0.652328
2010-10-18 06:29:17 51°13.662 2°55.959 18.5338 0.066619 0.35749 -0.687152
2010-10-18 06:29:22 51°13.662 2°55.959 18.5357 0.066619 0.35749 -0.687152
2010-10-18 06:29:27 51°13.662 2°55.959 18.5361 0.066619 0.357495 -0.721976
2010-10-18 06:29:32 51°13.662 2°55.959 18.5352 0.066619 0.357501 -0.687152
2010-10-18 06:29:37 51°13.662 2°55.959 18.5345 0.066619 0.357507 -0.652328
2010-10-18 06:29:42 51°13.662 2°55.959 18.5342 0.066619 0.357512 -0.687152
2010-10-18 06:29:47 51°13.662 2°55.959 18.5349 0.066619 0.357518 -0.687152
2010-10-18 06:29:52 51°13.662 2°55.959 18.536 0.066619 0.357512 -0.687152
2010-10-18 06:29:57 51°13.662 2°55.959 18.5378 0.066619 0.357512 -0.687152
2010-10-18 06:30:02 51°13.663 2°55.959 18.5365 0.066619 0.357529 -0.687152
2010-10-18 06:30:07 51°13.663 2°55.959 18.537 0.066619 0.357529 -0.687152
2010-10-18 06:30:12 51°13.663 2°55.959 18.5359 0.066619 0.357529 -0.687152
2010-10-18 06:30:17 51°13.663 2°55.959 18.5371 0.066619 0.357535 -0.652328
2010-10-18 06:30:22 51°13.663 2°55.959 18.5379 0.066619 0.357535 -0.687152
2010-10-18 06:30:27 51°13.663 2°55.959 18.5386 0.066619 0.357535 -0.687152
2010-10-18 06:30:32 51°13.663 2°55.959 18.5391 0.066619 0.357546 -0.652328
2010-10-18 06:30:37 51°13.663 2°55.959 18.5395 0.066619 0.357552 -0.687152
2010-10-18 06:30:42 51°13.663 2°55.96 18.5395 0.066619 0.357552 -0.652328
2010-10-18 06:30:47 51°13.663 2°55.959 18.5392 0.066619 0.357557 -0.687152
2010-10-18 06:30:52 51°13.663 2°55.96 18.5395 0.066619 0.357563 -0.652328
2010-10-18 06:30:57 51°13.663 2°55.96 18.5407 0.066619 0.357563 -0.652328
2010-10-18 06:31:02 51°13.663 2°55.96 18.5416 0.066619 0.357568 -0.687152
2010-10-18 06:31:07 51°13.663 2°55.96 18.5421 0.066619 0.357574 -0.652328
2010-10-18 06:31:12 51°13.663 2°55.96 18.54 0.066619 0.357574 -0.687152
2010-10-18 06:31:17 51°13.663 2°55.96 18.5396 0.066619 0.35758 -0.652328
2010-10-18 06:31:22 51°13.663 2°55.96 18.541 0.066619 0.35758 -0.652328
2010-10-18 06:31:27 51°13.664 2°55.96 18.5398 0.066619 0.35758 -0.652328
2010-10-18 06:31:32 51°13.664 2°55.96 18.5409 0.066619 0.357585 -0.687152
2010-10-18 06:31:37 51°13.665 2°55.959 18.5393 0.066619 0.357591 -0.687152
2010-10-18 06:31:42 51°13.665 2°55.959 18.5386 0.066619 0.357597 -0.721976
2010-10-18 06:31:47 51°13.665 2°55.959 18.5403 0.066619 0.357602 -0.687152
2010-10-18 06:31:52 51°13.665 2°55.959 18.5403 0.066619 0.357608 -0.687152
2010-10-18 06:31:57 51°13.665 2°55.959 18.5408 0.066619 0.357608 -0.687152
2010-10-18 06:32:02 51°13.665 2°55.959 18.5414 0.066619 0.357608 -0.652328
2010-10-18 06:32:07 51°13.665 2°55.959 18.5389 0.066619 0.357613 -0.687152
2010-10-18 06:32:12 51°13.664 2°55.959 18.5395 0.066619 0.357619 -0.721976
2010-10-18 06:32:17 51°13.663 2°55.959 18.5414 0.066619 0.357619 -0.687152
2010-10-18 06:32:22 51°13.663 2°55.96 18.541 0.066619 0.357619 -0.687152
2010-10-18 06:32:27 51°13.662 2°55.96 18.542 0.066619 0.357619 -0.687152
2010-10-18 06:32:32 51°13.662 2°55.96 18.5414 0.066619 0.35763 -0.652328
2010-10-18 06:32:37 51°13.662 2°55.96 18.5396 0.066619 0.357636 -0.687152
2010-10-18 06:32:42 51°13.662 2°55.96 18.5374 0.066619 0.357642 -0.687152
2010-10-18 06:32:47 51°13.663 2°55.96 18.5384 0.066619 0.357647 -0.687152
2010-10-18 06:32:52 51°13.663 2°55.96 18.5386 0.066619 0.357647 -0.687152
2010-10-18 06:32:57 51°13.663 2°55.96 18.5381 0.066619 0.357647 -0.687152
2010-10-18 06:33:02 51°13.663 2°55.96 18.5394 0.066619 0.357653 -0.687152
2010-10-18 06:33:07 51°13.663 2°55.96 18.5396 0.066619 0.357658 -0.687152
2010-10-18 06:33:12 51°13.663 2°55.96 18.5404 0.066619 0.357658 -0.687152
2010-10-18 06:33:17 51°13.663 2°55.96 18.5416 0.066619 0.357664 -0.652328
2010-10-18 06:33:22 51°13.663 2°55.96 18.5384 0.066619 0.35767 -0.687152
2010-10-18 06:33:27 51°13.663 2°55.96 18.5378 0.066619 0.35767 -0.687152
2010-10-18 06:33:32 51°13.663 2°55.96 18.5345 0.066619 0.357675 -0.687152
2010-10-18 06:33:37 51°13.663 2°55.96 18.5352 0.066619 0.357675 -0.687152
2010-10-18 06:33:42 51°13.663 2°55.96 18.5346 0.066619 0.357681 -0.721976
2010-10-18 06:33:47 51°13.663 2°55.96 18.5357 0.066619 0.357686 -0.687152
2010-10-18 06:33:52 51°13.663 2°55.96 18.5341 0.066619 0.357692 -0.652328
2010-10-18 06:33:57 51°13.663 2°55.96 18.5338 0.066619 0.357692 -0.652328
2010-10-18 06:34:02 51°13.663 2°55.961 18.5345 0.066619 0.357692 -0.652328
2010-10-18 06:34:07 51°13.662 2°55.961 18.5331 0.066619 0.357698 -0.652328
2010-10-18 06:34:12 51°13.662 2°55.961 18.534 0.066619 0.357703 -0.687152
2010-10-18 06:34:17 51°13.662 2°55.961 18.5341 0.066619 0.357709 -0.687152
2010-10-18 06:34:22 51°13.662 2°55.961 18.5342 0.066619 0.357709 -0.687152
2010-10-18 06:34:27 51°13.662 2°55.961 18.5349 0.066619 0.357709 -0.687152
2010-10-18 06:34:32 51°13.662 2°55.961 18.5325 0.066619 0.357715 -0.687152
2010-10-18 06:34:37 51°13.662 2°55.961 18.532 0.066619 0.35772 -0.687152
2010-10-18 06:34:42 51°13.662 2°55.961 18.5324 0.066619 0.357731 -0.652328
2010-10-18 06:34:47 51°13.662 2°55.961 18.5327 0.066619 0.357726 -0.687152
2010-10-18 06:34:52 51°13.662 2°55.961 18.5327 0.066619 0.357731 -0.652328
2010-10-18 06:34:57 51°13.662 2°55.961 18.5351 0.066619 0.357731 -0.652328
2010-10-18 06:35:02 51°13.662 2°55.961 18.5372 0.066619 0.357737 -0.687152
2010-10-18 06:35:07 51°13.662 2°55.961 18.5368 0.066619 0.357743 -0.687152
2010-10-18 06:35:12 51°13.662 2°55.961 18.5364 0.066619 0.357748 -0.687152
2010-10-18 06:35:17 51°13.663 2°55.961 18.5357 0.066619 0.357748 -0.687152
2010-10-18 06:35:22 51°13.662 2°55.96 18.5342 0.066619 0.357754 -0.652328
2010-10-18 06:35:27 51°13.662 2°55.96 18.5352 0.066619 0.357754 -0.652328
2010-10-18 06:35:32 51°13.663 2°55.961 18.5351 0.066619 0.35776 -0.687152
2010-10-18 06:35:37 51°13.662 2°55.96 18.5349 0.066619 0.357765 -0.652328
2010-10-18 06:35:42 51°13.662 2°55.96 18.5359 0.066619 0.357765 -0.721976
2010-10-18 06:35:47 51°13.663 2°55.961 18.5349 0.066619 0.357771 -0.687152
2010-10-18 06:35:52 51°13.662 2°55.961 18.5332 0.066619 0.357776 -0.652328
2010-10-18 06:35:57 51°13.662 2°55.961 18.5339 0.066619 0.357776 -0.652328
2010-10-18 06:36:02 51°13.663 2°55.961 18.5342 0.066619 0.357782 -0.652328
2010-10-18 06:36:07 51°13.662 2°55.961 18.5349 0.066619 0.357788 -0.652328
2010-10-18 06:36:12 51°13.662 2°55.961 18.5348 0.066619 0.357793 -0.687152
2010-10-18 06:36:17 51°13.662 2°55.961 18.5352 0.066619 0.357799 -0.687152
2010-10-18 06:36:22 51°13.662 2°55.961 18.5356 0.066619 0.357799 -0.721976
2010-10-18 06:36:27 51°13.662 2°55.961 18.5341 0.066619 0.357799 -0.721976
2010-10-18 06:36:32 51°13.663 2°55.961 18.5341 0.066619 0.35781 -0.687152
2010-10-18 06:36:37 51°13.663 2°55.961 18.5373 0.066515 0.357234 -0.652328
2010-10-18 06:36:42 51°13.663 2°55.961 18.5379 0.066515 0.35724 -0.652328
2010-10-18 06:36:47 51°13.663 2°55.961 18.5381 0.066619 0.357816 -0.687152
2010-10-18 06:36:52 51°13.663 2°55.961 18.5389 0.066619 0.357821 -0.687152
2010-10-18 06:36:57 51°13.663 2°55.96 18.5376 0.066619 0.357821 -0.687152
2010-10-18 06:37:02 51°13.663 2°55.96 18.5384 0.066619 0.357827 -0.652328
2010-10-18 06:37:07 51°13.663 2°55.96 18.5398 0.066515 0.357257 -0.687152
2010-10-18 06:37:12 51°13.663 2°55.96 18.5392 0.066515 0.357257 -0.687152
2010-10-18 06:37:17 51°13.663 2°55.96 18.5393 0.066619 0.357838 -0.687152
2010-10-18 06:37:22 51°13.663 2°55.96 18.5402 0.066619 0.357844 -0.652328
2010-10-18 06:37:27 51°13.663 2°55.96 18.5398 0.066619 0.357844 -0.652328
2010-10-18 06:37:32 51°13.663 2°55.96 18.5418 0.066515 0.357273 -0.687152
2010-10-18 06:37:37 51°13.663 2°55.96 18.5408 0.066619 0.357855 -0.721976
2010-10-18 06:37:42 51°13.663 2°55.96 18.5394 0.066619 0.357861 -0.687152
2010-10-18 06:37:47 51°13.663 2°55.96 18.5373 0.066619 0.357861 -0.652328
2010-10-18 06:37:52 51°13.663 2°55.959 18.537 0.066515 0.357296 -0.652328
2010-10-18 06:37:57 51°13.663 2°55.959 18.537 0.066515 0.357296 -0.652328
2010-10-18 06:38:02 51°13.663 2°55.959 18.5382 0.066515 0.357296 -0.721976
2010-10-18 06:38:07 51°13.663 2°55.959 18.5384 0.066515 0.357296 -0.687152
2010-10-18 06:38:12 51°13.662 2°55.959 18.5378 0.066619 0.357878 -0.652328
2010-10-18 06:38:17 51°13.662 2°55.96 18.538 0.066515 0.357307 -0.652328
2010-10-18 06:38:22 51°13.662 2°55.96 18.5391 0.066515 0.357313 -0.687152
2010-10-18 06:38:27 51°13.662 2°55.96 18.5409 0.066515 0.357313 -0.687152
2010-10-18 06:38:32 51°13.662 2°55.96 18.5391 0.066515 0.357318 -0.652328
2010-10-18 06:38:37 51°13.662 2°55.96 18.5385 0.066515 0.35733 -0.687152
2010-10-18 06:38:42 51°13.662 2°55.96 18.5389 0.066515 0.35733 -0.721976
2010-10-18 06:38:47 51°13.662 2°55.96 18.5377 0.066515 0.35733 -0.652328
2010-10-18 06:38:52 51°13.662 2°55.96 18.537 0.066515 0.357335 -0.652328
2010-10-18 06:38:57 51°13.662 2°55.96 18.5372 0.066515 0.357335 -0.652328
2010-10-18 06:39:02 51°13.662 2°55.96 18.538 0.066515 0.357341 -0.652328
2010-10-18 06:39:07 51°13.662 2°55.96 18.5379 0.066619 0.357923 -0.652328
2010-10-18 06:39:12 51°13.663 2°55.96 18.5383 0.066515 0.357352 -0.687152
2010-10-18 06:39:17 51°13.663 2°55.96 18.5396 0.066515 0.357358 -0.687152
2010-10-18 06:39:22 51°13.663 2°55.96 18.5388 0.066515 0.357363 -0.687152
2010-10-18 06:39:27 51°13.663 2°55.96 18.5399 0.066515 0.357363 -0.687152
2010-10-18 06:39:32 51°13.663 2°55.96 18.5403 0.066515 0.357363 -0.687152
2010-10-18 06:39:37 51°13.662 2°55.96 18.5407 0.066515 0.357369 -0.687152
2010-10-18 06:39:42 51°13.663 2°55.96 18.542 0.066515 0.357375 -0.652328
2010-10-18 06:39:47 51°13.663 2°55.959 18.5438 0.066515 0.35738 -0.687152
2010-10-18 06:39:52 51°13.663 2°55.96 18.5432 0.066515 0.357386 -0.687152
2010-10-18 06:39:57 51°13.663 2°55.96 18.5417 0.066515 0.357386 -0.687152
2010-10-18 06:40:02 51°13.663 2°55.96 18.5426 0.066515 0.357386 -0.652328
2010-10-18 06:40:07 51°13.662 2°55.96 18.5405 0.066515 0.357391 -0.687152
2010-10-18 06:40:12 51°13.662 2°55.96 18.5425 0.066515 0.357397 -0.652328
2010-10-18 06:40:17 51°13.662 2°55.96 18.5421 0.066515 0.357403 -0.652328
2010-10-18 06:40:22 51°13.662 2°55.96 18.5409 0.066515 0.357403 -0.652328
2010-10-18 06:40:27 51°13.662 2°55.96 18.54 0.066515 0.357403 -0.652328
2010-10-18 06:40:32 51°13.662 2°55.96 18.5395 0.066515 0.357408 -0.652328
2010-10-18 06:40:37 51°13.662 2°55.96 18.5385 0.066515 0.35742 -0.652328
2010-10-18 06:40:42 51°13.662 2°55.96 18.5385 0.066515 0.35742 -0.687152
2010-10-18 06:40:47 51°13.662 2°55.96 18.5409 0.066515 0.357425 -0.652328
2010-10-18 06:40:52 51°13.662 2°55.96 18.5398 0.066515 0.357431 -0.687152
2010-10-18 06:40:57 51°13.662 2°55.96 18.539 0.066515 0.357431 -0.687152
2010-10-18 06:41:02 51°13.662 2°55.96 18.5391 0.066515 0.357436 -0.652328
2010-10-18 06:41:07 51°13.662 2°55.96 18.5365 0.066515 0.357442 -0.687152
2010-10-18 06:41:12 51°13.662 2°55.96 18.5359 0.066515 0.357442 -0.652328
2010-10-18 06:41:17 51°13.662 2°55.96 18.5364 0.066515 0.357453 -0.687152
2010-10-18 06:41:22 51°13.662 2°55.96 18.5359 0.066515 0.357448 -0.721976
2010-10-18 06:41:27 51°13.662 2°55.96 18.5364 0.066515 0.357448 -0.721976
2010-10-18 06:41:32 51°13.662 2°55.96 18.5358 0.066515 0.357459 -0.687152
2010-10-18 06:41:37 51°13.662 2°55.96 18.5351 0.066515 0.357465 -0.687152
2010-10-18 06:41:42 51°13.662 2°55.96 18.5353 0.066515 0.35747 -0.687152
2010-10-18 06:41:47 51°13.662 2°55.96 18.5374 0.066515 0.357476 -0.652328
2010-10-18 06:41:52 51°13.662 2°55.96 18.5384 0.066515 0.357476 -0.687152
2010-10-18 06:41:57 51°13.662 2°55.96 18.5345 0.066515 0.357476 -0.687152
2010-10-18 06:42:02 51°13.662 2°55.96 18.538 0.066515 0.357481 -0.687152
2010-10-18 06:42:07 51°13.662 2°55.959 18.5396 0.066515 0.357493 -0.687152
2010-10-18 06:42:12 51°13.662 2°55.959 18.5421 0.066515 0.357493 -0.687152
2010-10-18 06:42:17 51°13.662 2°55.959 18.5401 0.066515 0.357498 -0.687152
2010-10-18 06:42:22 51°13.662 2°55.959 18.5403 0.066515 0.357504 -0.687152
2010-10-18 06:42:27 51°13.662 2°55.959 18.5428 0.066515 0.357504 -0.687152
2010-10-18 06:42:32 51°13.662 2°55.959 18.5417 0.066515 0.357504 -0.687152
2010-10-18 06:42:37 51°13.662 2°55.959 18.5415 0.066515 0.357515 -0.652328
2010-10-18 06:42:42 51°13.662 2°55.959 18.5432 0.066515 0.357515 -0.652328
2010-10-18 06:42:47 51°13.662 2°55.959 18.5425 0.066515 0.357521 -0.687152
2010-10-18 06:42:52 51°13.662 2°55.959 18.5439 0.066515 0.357526 -0.687152
2010-10-18 06:42:57 51°13.662 2°55.959 18.5432 0.066515 0.357526 -0.687152
2010-10-18 06:43:02 51°13.662 2°55.959 18.543 0.066515 0.357532 -0.721976
2010-10-18 06:43:07 51°13.663 2°55.959 18.5439 0.066515 0.357543 -0.687152
2010-10-18 06:43:12 51°13.663 2°55.959 18.5438 0.066515 0.357549 -0.687152
2010-10-18 06:43:17 51°13.662 2°55.959 18.5405 0.066515 0.357549 -0.652328
2010-10-18 06:43:22 51°13.663 2°55.959 18.5426 0.066515 0.357555 -0.687152
2010-10-18 06:43:27 51°13.663 2°55.959 18.5432 0.066515 0.357555 -0.687152
2010-10-18 06:43:32 51°13.663 2°55.959 18.5441 0.066515 0.357555 -0.687152
2010-10-18 06:43:37 51°13.663 2°55.959 18.5428 0.066515 0.35756 -0.687152
2010-10-18 06:43:42 51°13.663 2°55.959 18.5426 0.066515 0.357566 -0.687152
2010-10-18 06:43:47 51°13.662 2°55.959 18.5432 0.066515 0.357571 -0.687152
2010-10-18 06:43:52 51°13.662 2°55.959 18.5438 0.066515 0.357577 -0.687152
2010-10-18 06:43:57 51°13.662 2°55.959 18.5438 0.066515 0.357577 -0.687152
2010-10-18 06:44:02 51°13.662 2°55.959 18.5421 0.066515 0.357583 -0.652328
2010-10-18 06:44:07 51°13.662 2°55.959 18.5423 0.066515 0.357588 -0.687152
2010-10-18 06:44:12 51°13.662 2°55.959 18.5426 0.066515 0.357594 -0.687152
2010-10-18 06:44:17 51°13.662 2°55.959 18.5422 0.066515 0.357594 -0.652328
2010-10-18 06:44:22 51°13.662 2°55.959 18.5415 0.066515 0.3576 -0.687152
2010-10-18 06:44:27 51°13.662 2°55.959 18.5433 0.066515 0.3576 -0.687152
2010-10-18 06:44:32 51°13.662 2°55.959 18.5428 0.066515 0.357605 -0.687152
2010-10-18 06:44:37 51°13.662 2°55.959 18.5404 0.066515 0.357617 -0.687152
2010-10-18 06:44:42 51°13.662 2°55.959 18.5391 0.066515 0.357611 -0.687152
2010-10-18 06:44:47 51°13.662 2°55.959 18.5377 0.066515 0.357622 -0.652328
2010-10-18 06:44:52 51°13.662 2°55.959 18.537 0.066515 0.357628 -0.652328
2010-10-18 06:44:57 51°13.663 2°55.959 18.5389 0.066515 0.357628 -0.652328
2010-10-18 06:45:02 51°13.662 2°55.959 18.5398 0.066515 0.357633 -0.687152
2010-10-18 06:45:07 51°13.662 2°55.959 18.5391 0.066515 0.357639 -0.687152
2010-10-18 06:45:12 51°13.662 2°55.959 18.5417 0.066515 0.357645 -0.721976
2010-10-18 06:45:17 51°13.663 2°55.959 18.5421 0.066515 0.357645 -0.687152
2010-10-18 06:45:22 51°13.663 2°55.959 18.543 0.066515 0.35765 -0.687152
2010-10-18 06:45:27 51°13.663 2°55.959 18.5447 0.066515 0.35765 -0.687152
2010-10-18 06:45:32 51°13.663 2°55.959 18.5466 0.066515 0.357656 -0.687152
2010-10-18 06:45:37 51°13.663 2°55.959 18.5462 0.066515 0.357662 -0.687152
2010-10-18 06:45:42 51°13.663 2°55.959 18.5463 0.066515 0.357667 -0.652328
2010-10-18 06:45:47 51°13.663 2°55.959 18.5471 0.066515 0.357667 -0.687152
2010-10-18 06:45:52 51°13.663 2°55.959 18.5461 0.066515 0.357673 -0.652328
2010-10-18 06:45:57 51°13.663 2°55.959 18.5472 0.066515 0.357673 -0.652328
2010-10-18 06:46:02 51°13.663 2°55.959 18.5461 0.066515 0.357673 -0.721976
2010-10-18 06:46:07 51°13.663 2°55.959 18.5463 0.066515 0.357678 -0.687152
2010-10-18 06:46:12 51°13.663 2°55.959 18.5452 0.066515 0.35769 -0.652328
2010-10-18 06:46:17 51°13.663 2°55.959 18.5419 0.066515 0.357701 -0.652328
2010-10-18 06:46:22 51°13.663 2°55.96 18.5391 0.066515 0.357701 -0.687152
2010-10-18 06:46:27 51°13.663 2°55.959 18.5347 0.066515 0.357701 -0.687152
2010-10-18 06:46:32 51°13.663 2°55.96 18.5309 0.066515 0.357707 -0.687152
2010-10-18 06:46:37 51°13.663 2°55.96 18.5309 0.066515 0.357712 -0.687152
2010-10-18 06:46:42 51°13.662 2°55.96 18.5325 0.066515 0.357712 -0.652328
2010-10-18 06:46:47 51°13.663 2°55.96 18.5329 0.066515 0.357718 -0.687152
2010-10-18 06:46:52 51°13.663 2°55.96 18.5317 0.066515 0.357729 -0.687152
2010-10-18 06:46:57 51°13.662 2°55.96 18.5301 0.066515 0.357729 -0.687152
2010-10-18 06:47:02 51°13.663 2°55.96 18.531 0.066515 0.357735 -0.687152
2010-10-18 06:47:07 51°13.663 2°55.96 18.5312 0.066515 0.357735 -0.687152
2010-10-18 06:47:12 51°13.663 2°55.96 18.5328 0.066515 0.357735 -0.687152
2010-10-18 06:47:17 51°13.663 2°55.96 18.5342 0.066515 0.357746 -0.652328
2010-10-18 06:47:22 51°13.663 2°55.96 18.5349 0.066515 0.357746 -0.721976
2010-10-18 06:47:27 51°13.663 2°55.96 18.5339 0.066515 0.357746 -0.721976
2010-10-18 06:47:32 51°13.663 2°55.959 18.5343 0.066515 0.357752 -0.687152
2010-10-18 06:47:37 51°13.663 2°55.959 18.5335 0.066515 0.357763 -0.652328
2010-10-18 06:47:42 51°13.663 2°55.959 18.5364 0.066515 0.357769 -0.687152
2010-10-18 06:47:47 51°13.663 2°55.959 18.5367 0.066515 0.357769 -0.687152
2010-10-18 06:47:52 51°13.663 2°55.959 18.5382 0.066515 0.35778 -0.687152
2010-10-18 06:47:57 51°13.663 2°55.959 18.5382 0.066515 0.35778 -0.687152
2010-10-18 06:48:02 51°13.663 2°55.959 18.5373 0.066515 0.35778 -0.687152
2010-10-18 06:48:07 51°13.663 2°55.959 18.5351 0.066515 0.357786 -0.687152
2010-10-18 06:48:12 51°13.663 2°55.959 18.5364 0.066515 0.357786 -0.652328
2010-10-18 06:48:17 51°13.663 2°55.959 18.5333 0.066515 0.357797 -0.687152
2010-10-18 06:48:22 51°13.663 2°55.959 18.533 0.066515 0.357802 -0.721976
2010-10-18 06:48:27 51°13.663 2°55.959 18.5331 0.066515 0.357802 -0.721976
2010-10-18 06:48:32 51°13.663 2°55.959 18.5335 0.066515 0.357802 -0.721976
2010-10-18 06:48:35 51°13.663 2°55.959 18.5314 0.066515 0.357808 -0.687152
2010-10-18 06:48:42 51°13.663 2°55.96 18.5272 0.066515 0.357814 -0.687152
2010-10-18 06:48:47 51°13.663 2°55.96 18.5286 0.066515 0.357825 -0.721976
2010-10-18 06:48:53 51°13.663 2°55.96 18.5297 0.066515 0.357831 -0.687152
2010-10-18 06:48:57 51°13.662 2°55.96 18.5305 0.066515 0.357831 -0.687152
2010-10-18 06:49:02 51°13.662 2°55.96 18.531 0.066515 0.357836 -0.687152
2010-10-18 06:49:07 51°13.662 2°55.96 18.5307 0.066515 0.357836 -0.687152
2010-10-18 06:49:12 51°13.662 2°55.96 18.5317 0.066515 0.357842 -0.652328
2010-10-18 06:49:17 51°13.662 2°55.96 18.533 0.066515 0.357848 -0.721976
2010-10-18 06:49:22 51°13.662 2°55.96 18.532 0.066515 0.357853 -0.687152
2010-10-18 06:49:27 51°13.662 2°55.96 18.5329 0.066515 0.357853 -0.687152
2010-10-18 06:49:32 51°13.662 2°55.96 18.5356 0.066515 0.357864 -0.687152
2010-10-18 06:49:37 51°13.662 2°55.96 18.5361 0.066515 0.357864 -0.687152
2010-10-18 06:49:41 51°13.662 2°55.96 18.5368 0.066515 0.35787 -0.687152
2010-10-18 06:49:46 51°13.662 2°55.96 18.5356 0.066515 0.35787 -0.687152
2010-10-18 06:49:51 51°13.662 2°55.96 18.5368 0.066515 0.357881 -0.652328
2010-10-18 06:49:56 51°13.662 2°55.96 18.5371 0.066515 0.357881 -0.652328
2010-10-18 06:50:01 51°13.662 2°55.96 18.537 0.066515 0.357887 -0.652328
2010-10-18 06:50:05 51°13.662 2°55.96 18.5362 0.066515 0.357887 -0.687152
2010-10-18 06:50:10 51°13.662 2°55.96 18.5363 0.066515 0.357893 -0.687152
2010-10-18 06:50:15 51°13.662 2°55.96 18.5377 0.066515 0.357904 -0.652328
2010-10-18 06:50:20 51°13.662 2°55.96 18.5388 0.066515 0.35791 -0.687152
2010-10-18 06:50:25 51°13.662 2°55.96 18.54 0.066515 0.35791 -0.687152
2010-10-18 06:50:29 51°13.662 2°55.96 18.5404 0.066515 0.357915 -0.687152
2010-10-18 06:50:34 51°13.662 2°55.96 18.5396 0.066515 0.357921 -0.687152
2010-10-18 06:50:39 51°13.662 2°55.96 18.5391 0.066515 0.357927 -0.687152
2010-10-18 06:50:44 51°13.662 2°55.96 18.5396 0.066515 0.357927 -0.687152
2010-10-18 06:50:49 51°13.662 2°55.96 18.5413 0.066515 0.357932 -0.687152
2010-10-18 06:50:54 51°13.662 2°55.96 18.5414 0.066515 0.357932 -0.687152
2010-10-18 06:50:59 51°13.662 2°55.96 18.5409 0.066515 0.357938 -0.687152
2010-10-18 06:51:04 51°13.662 2°55.96 18.5415 0.066515 0.357943 -0.687152
2010-10-18 06:51:09 51°13.662 2°55.96 18.5437 0.066515 0.357938 -0.687152
2010-10-18 06:51:15 51°13.662 2°55.96 18.5452 0.066515 0.35796 -0.652328
2010-10-18 06:51:21 51°13.662 2°55.96 18.5466 0.066515 0.35796 -0.687152
2010-10-18 06:51:25 51°13.662 2°55.96 18.5481 0.066515 0.35796 -0.687152
2010-10-18 06:51:30 51°13.662 2°55.96 18.5509 0.066515 0.357966 -0.652328
2010-10-18 06:51:35 51°13.662 2°55.96 18.5524 0.066515 0.357972 -0.687152
2010-10-18 06:51:41 51°13.663 2°55.96 18.5556 0.066515 0.357977 -0.652328
2010-10-18 06:51:45 51°13.663 2°55.96 18.5624 0.066515 0.357977 -0.687152
2010-10-18 06:51:50 51°13.663 2°55.96 18.5651 0.066515 0.357989 -0.687152
2010-10-18 06:51:55 51°13.663 2°55.96 18.5686 0.066515 0.357989 -0.687152
2010-10-18 06:52:00 51°13.663 2°55.96 18.568 0.066515 0.357994 -0.687152
2010-10-18 06:52:05 51°13.663 2°55.96 18.5625 0.066515 0.357994 -0.687152
2010-10-18 06:52:09 51°13.663 2°55.96 18.5595 0.066515 0.358006 -0.687152
2010-10-18 06:52:14 51°13.662 2°55.96 18.557 0.066515 0.358006 -0.687152
2010-10-18 06:52:19 51°13.663 2°55.96 18.5557 0.066515 0.358006 -0.687152
2010-10-18 06:52:24 51°13.663 2°55.96 18.5535 0.066515 0.358006 -0.687152
2010-10-18 06:52:29 51°13.663 2°55.96 18.5519 0.066515 0.358017 -0.687152
2010-10-18 06:52:33 51°13.663 2°55.96 18.5507 0.066515 0.358022 -0.652328
2010-10-18 06:52:38 51°13.663 2°55.96 18.55 0.066515 0.358028 -0.687152
2010-10-18 06:52:44 51°13.663 2°55.96 18.55 0.066515 0.358039 -0.687152
2010-10-18 06:52:49 51°13.663 2°55.96 18.5506 0.066515 0.358045 -0.687152
2010-10-18 06:52:53 51°13.663 2°55.96 18.5507 0.066515 0.358045 -0.687152
2010-10-18 06:52:58 51°13.663 2°55.96 18.549 0.066515 0.358051 -0.652328
2010-10-18 06:53:03 51°13.663 2°55.96 18.5446 0.066515 0.358056 -0.687152
2010-10-18 06:53:09 51°13.663 2°55.96 18.5401 0.066515 0.358062 -0.687152
2010-10-18 06:53:14 51°13.663 2°55.96 18.5409 0.066515 0.358068 -0.652328
2010-10-18 06:53:18 51°13.663 2°55.96 18.5402 0.066515 0.358068 -0.687152
2010-10-18 06:53:24 51°13.663 2°55.961 18.5394 0.066515 0.358068 -0.687152
2010-10-18 06:53:29 51°13.663 2°55.96 18.5415 0.066515 0.358073 -0.652328
2010-10-18 06:53:33 51°13.663 2°55.961 18.5396 0.066515 0.358079 -0.687152
2010-10-18 06:53:38 51°13.663 2°55.961 18.5386 0.066515 0.358085 -0.687152
2010-10-18 06:53:44 51°13.663 2°55.961 18.5387 0.066515 0.35809 -0.687152
2010-10-18 06:53:48 51°13.663 2°55.961 18.5386 0.066515 0.35809 -0.687152
2010-10-18 06:53:53 51°13.663 2°55.961 18.5398 0.066515 0.35809 -0.687152
2010-10-18 06:53:58 51°13.663 2°55.961 18.5401 0.066515 0.358102 -0.652328
2010-10-18 06:54:03 51°13.663 2°55.961 18.5384 0.066515 0.358107 -0.652328
2010-10-18 06:54:08 51°13.663 2°55.961 18.536 0.066515 0.358113 -0.652328
2010-10-18 06:54:13 51°13.663 2°55.961 18.5355 0.066515 0.358124 -0.687152
2010-10-18 06:54:18 51°13.663 2°55.961 18.536 0.066515 0.35813 -0.687152
2010-10-18 06:54:23 51°13.663 2°55.961 18.5372 0.066515 0.35813 -0.687152
2010-10-18 06:54:28 51°13.663 2°55.961 18.5372 0.066515 0.35813 -0.687152
2010-10-18 06:54:33 51°13.663 2°55.961 18.5358 0.066515 0.358135 -0.687152
2010-10-18 06:54:39 51°13.663 2°55.961 18.5351 0.066515 0.358141 -0.721976
2010-10-18 06:54:43 51°13.663 2°55.961 18.532 0.066515 0.358147 -0.687152
2010-10-18 06:54:48 51°13.663 2°55.961 18.5327 0.066411 0.357575 -0.652328
2010-10-18 06:54:54 51°13.663 2°55.961 18.5328 0.066411 0.357575 -0.652328
2010-10-18 06:54:58 51°13.663 2°55.961 18.532 0.066515 0.358158 -0.687152
2010-10-18 06:55:03 51°13.663 2°55.961 18.5317 0.066411 0.357586 -0.687152
2010-10-18 06:55:09 51°13.663 2°55.961 18.532 0.066515 0.358169 -0.687152
2010-10-18 06:55:14 51°13.663 2°55.961 18.5325 0.066515 0.358181 -0.687152
2010-10-18 06:55:18 51°13.663 2°55.961 18.5336 0.066515 0.358186 -0.687152
2010-10-18 06:55:23 51°13.663 2°55.961 18.5343 0.066515 0.358186 -0.687152
2010-10-18 06:55:28 51°13.663 2°55.961 18.5363 0.066411 0.357609 -0.687152
2010-10-18 06:55:34 51°13.663 2°55.961 18.5362 0.066515 0.358192 -0.687152
2010-10-18 06:55:38 51°13.664 2°55.961 18.5342 0.066411 0.357626 -0.687152
2010-10-18 06:55:44 51°13.664 2°55.961 18.5346 0.066411 0.357631 -0.652328
2010-10-18 06:55:50 51°13.664 2°55.961 18.5352 0.066411 0.357637 -0.687152
2010-10-18 06:55:54 51°13.663 2°55.961 18.5351 0.066411 0.357637 -0.687152
2010-10-18 06:55:59 51°13.663 2°55.961 18.5354 0.066411 0.357642 -0.652328
2010-10-18 06:56:04 51°13.663 2°55.961 18.5354 0.066411 0.357648 -0.687152
2010-10-18 06:56:09 51°13.663 2°55.961 18.5356 0.066411 0.357654 -0.687152
2010-10-18 06:56:14 51°13.663 2°55.961 18.5364 0.066411 0.357659 -0.687152
2010-10-18 06:56:18 51°13.663 2°55.961 18.5357 0.066411 0.357665 -0.652328
2010-10-18 06:56:24 51°13.663 2°55.961 18.538 0.066411 0.357665 -0.652328
2010-10-18 06:56:28 51°13.663 2°55.961 18.537 0.066515 0.358249 -0.687152
2010-10-18 06:56:34 51°13.663 2°55.96 18.5346 0.066411 0.357682 -0.687152
2010-10-18 06:56:38 51°13.663 2°55.96 18.5286 0.066411 0.357682 -0.687152
2010-10-18 06:56:43 51°13.663 2°55.961 18.527 0.066411 0.357688 -0.687152
2010-10-18 06:56:49 51°13.663 2°55.961 18.528 0.066411 0.357688 -0.652328
2010-10-18 06:56:54 51°13.663 2°55.961 18.5288 0.066411 0.357688 -0.652328
2010-10-18 06:56:58 51°13.663 2°55.961 18.5316 0.066411 0.357699 -0.687152
2010-10-18 06:57:04 51°13.663 2°55.961 18.5301 0.066411 0.357705 -0.687152
2010-10-18 06:57:09 51°13.662 2°55.961 18.5316 0.066411 0.35771 -0.687152
2010-10-18 06:57:14 51°13.662 2°55.961 18.5301 0.066411 0.357716 -0.687152
2010-10-18 06:57:18 51°13.662 2°55.962 18.5164 0.066411 0.357722 -0.687152
2010-10-18 06:57:23 51°13.662 2°55.962 18.5143 0.066411 0.357722 -0.687152
2010-10-18 06:57:29 51°13.662 2°55.962 18.5133 0.066411 0.357733 -0.721976
2010-10-18 06:57:34 51°13.662 2°55.962 18.5247 0.066411 0.357733 -0.687152
2010-10-18 06:57:38 51°13.662 2°55.962 18.5229 0.066411 0.35775 -0.687152
2010-10-18 06:57:44 51°13.662 2°55.962 18.5161 0.066411 0.35775 -0.687152
2010-10-18 06:57:49 51°13.662 2°55.962 18.5193 0.066411 0.357761 -0.652328
2010-10-18 06:57:54 51°13.662 2°55.962 18.5215 0.066411 0.357761 -0.652328
2010-10-18 06:57:58 51°13.662 2°55.962 18.5237 0.066411 0.357761 -0.687152
2010-10-18 06:58:03 51°13.662 2°55.96 18.5262 0.066411 0.357767 -0.687152
2010-10-18 06:58:09 51°13.662 2°55.96 18.5274 0.066411 0.357772 -0.687152
2010-10-18 06:58:14 51°13.662 2°55.961 18.5245 0.066411 0.357784 -0.687152
2010-10-18 06:58:18 51°13.662 2°55.961 18.525 0.066411 0.357789 -0.687152
2010-10-18 06:58:23 51°13.662 2°55.961 18.5251 0.066411 0.357789 -0.687152
2010-10-18 06:58:29 51°13.662 2°55.961 18.5267 0.066411 0.357789 -0.721976
2010-10-18 06:58:34 51°13.662 2°55.961 18.5282 0.066411 0.357801 -0.687152
2010-10-18 06:58:38 51°13.662 2°55.961 18.5274 0.066411 0.357806 -0.652328
2010-10-18 06:58:44 51°13.662 2°55.962 18.5272 0.066411 0.357818 -0.687152
2010-10-18 06:58:49 51°13.662 2°55.961 18.5266 0.066411 0.357818 -0.721976
2010-10-18 06:58:54 51°13.661 2°55.962 18.5255 0.066411 0.357818 -0.721976
2010-10-18 06:58:58 51°13.661 2°55.961 18.5255 0.066411 0.357829 -0.652328
2010-10-18 06:59:03 51°13.661 2°55.961 18.5263 0.066411 0.357829 -0.652328
2010-10-18 06:59:09 51°13.661 2°55.961 18.524 0.066411 0.357835 -0.687152
2010-10-18 06:59:14 51°13.661 2°55.961 18.5208 0.066411 0.35784 -0.687152
2010-10-18 06:59:18 51°13.661 2°55.961 18.5212 0.066411 0.357851 -0.687152
2010-10-18 06:59:24 51°13.661 2°55.961 18.5229 0.066411 0.357851 -0.687152
2010-10-18 06:59:29 51°13.661 2°55.961 18.5227 0.066411 0.357857 -0.687152
2010-10-18 06:59:34 51°13.661 2°55.961 18.5243 0.066411 0.357863 -0.652328
2010-10-18 06:59:38 51°13.661 2°55.961 18.525 0.066411 0.357868 -0.652328
2010-10-18 06:59:43 51°13.661 2°55.961 18.5256 0.066411 0.357874 -0.687152
2010-10-18 06:59:49 51°13.661 2°55.962 18.5252 0.066411 0.35788 -0.721976
2010-10-18 06:59:54 51°13.661 2°55.962 18.526 0.066411 0.35788 -0.721976
2010-10-18 06:59:58 51°13.661 2°55.962 18.5196 0.066411 0.357891 -0.687152
2010-10-18 07:00:04 51°13.661 2°55.962 18.5211 0.066411 0.357897 -0.687152
2010-10-18 07:00:08 51°13.661 2°55.962 18.5227 0.066411 0.357902 -0.687152
2010-10-18 07:00:14 51°13.661 2°55.962 18.5241 0.066411 0.357908 -0.652328
2010-10-18 07:00:18 51°13.661 2°55.962 18.5257 0.066411 0.357919 -0.652328
2010-10-18 07:00:23 51°13.661 2°55.962 18.5256 0.066411 0.357919 -0.652328
2010-10-18 07:00:28 51°13.661 2°55.962 18.5259 0.066411 0.357919 -0.652328
2010-10-18 07:00:34 51°13.661 2°55.962 18.527 0.066411 0.357925 -0.687152
2010-10-18 07:00:38 51°13.661 2°55.962 18.5269 0.066411 0.357936 -0.652328
2010-10-18 07:00:43 51°13.66 2°55.962 18.524 0.066411 0.357942 -0.652328
2010-10-18 07:00:49 51°13.66 2°55.962 18.5225 0.066411 0.357948 -0.687152
2010-10-18 07:00:54 51°13.66 2°55.962 18.519 0.066411 0.357948 -0.687152
2010-10-18 07:00:58 51°13.66 2°55.962 18.5167 0.066411 0.357953 -0.687152
2010-10-18 07:01:04 51°13.66 2°55.962 18.5196 0.066411 0.357959 -0.687152
2010-10-18 07:01:09 51°13.66 2°55.962 18.5213 0.066411 0.357965 -0.687152
2010-10-18 07:01:14 51°13.66 2°55.961 18.5204 0.066411 0.357976 -0.687152
2010-10-18 07:01:18 51°13.66 2°55.961 18.5022 0.066411 0.357982 -0.687152
2010-10-18 07:01:23 51°13.66 2°55.961 18.4894 0.066411 0.357982 -0.687152
2010-10-18 07:01:28 51°13.66 2°55.96 18.4739 0.066411 0.357987 -0.721976
2010-10-18 07:01:34 51°13.661 2°55.958 18.3922 0.066411 0.357998 -0.687152
2010-10-18 07:01:38 51°13.662 2°55.956 18.437 0.066411 0.357998 -0.687152
2010-10-18 07:01:43 51°13.662 2°55.953 18.4654 0.066411 0.35801 -0.652328
2010-10-18 07:01:49 51°13.664 2°55.948 18.4572 0.066411 0.358021 -0.721976
2010-10-18 07:01:54 51°13.666 2°55.943 18.4674 0.066411 0.358021 -0.721976
2010-10-18 07:02:00 51°13.668 2°55.935 18.4554 0.066411 0.358021 -0.687152
2010-10-18 07:02:06 51°13.671 2°55.926 18.4804 0.066411 0.358032 -0.687152
2010-10-18 07:02:11 51°13.673 2°55.918 18.4705 0.066411 0.358032 -0.652328
2010-10-18 07:02:17 51°13.675 2°55.907 18.5121 0.066411 0.358038 -0.687152
2010-10-18 07:02:22 51°13.677 2°55.898 18.5068 0.066411 0.358044 -0.652328
2010-10-18 07:02:27 51°13.678 2°55.889 18.4961 0.066411 0.358044 -0.652328
2010-10-18 07:02:32 51°13.679 2°55.879 18.5053 0.066411 0.358049 -0.687152
2010-10-18 07:02:37 51°13.68 2°55.869 18.5158 0.066411 0.358055 -0.687152
2010-10-18 07:02:42 51°13.683 2°55.859 18.5161 0.066411 0.358061 -0.687152
2010-10-18 07:02:47 51°13.686 2°55.85 18.5176 0.066411 0.358066 -0.721976
2010-10-18 07:02:52 51°13.687 2°55.841 18.5134 0.066411 0.358083 -0.687152
2010-10-18 07:02:57 51°13.688 2°55.832 18.5135 0.066411 0.358083 -0.687152
2010-10-18 07:03:02 51°13.689 2°55.823 18.5144 0.066411 0.358089 -0.687152
2010-10-18 07:03:05 51°13.69 2°55.818 18.515 0.066411 0.358089 -0.687152
2010-10-18 07:03:12 51°13.691 2°55.805 18.5117 0.066411 0.358095 -0.687152
2010-10-18 07:03:17 51°13.694 2°55.795 18.5099 0.066411 0.3581 -0.687152
2010-10-18 07:03:22 51°13.696 2°55.786 18.5067 0.066411 0.358106 -0.687152
2010-10-18 07:03:27 51°13.696 2°55.779 18.511 0.066411 0.358106 -0.687152
2010-10-18 07:03:32 51°13.696 2°55.772 18.5096 0.066411 0.358112 -0.687152
2010-10-18 07:03:37 51°13.696 2°55.765 18.5102 0.066411 0.358117 -0.652328
2010-10-18 07:03:42 51°13.696 2°55.759 18.5021 0.066411 0.358123 -0.721976
2010-10-18 07:03:47 51°13.696 2°55.753 18.5063 0.066411 0.358134 -0.687152
2010-10-18 07:03:52 51°13.696 2°55.748 18.5198 0.066411 0.358134 -0.687152
2010-10-18 07:03:57 51°13.696 2°55.745 18.5325 0.066411 0.358134 -0.687152
2010-10-18 07:04:02 51°13.697 2°55.743 18.5301 0.066411 0.358151 -0.687152
2010-10-18 07:04:06 51°13.697 2°55.742 18.5229 0.066411 0.358163 -0.652328
2010-10-18 07:04:11 51°13.697 2°55.74 18.5152 0.066411 0.358174 -0.687152
2010-10-18 07:04:16 51°13.698 2°55.739 18.5193 0.066411 0.358174 -0.687152
2010-10-18 07:04:21 51°13.698 2°55.739 18.5162 0.066411 0.35818 -0.687152
2010-10-18 07:04:25 51°13.698 2°55.739 18.5148 0.066411 0.358185 -0.652328
2010-10-18 07:04:25 51°13.698 2°55.739 18.5153 0.066411 0.35818 -0.687152
2010-10-18 07:04:36 51°13.7 2°55.737 18.5156 0.066411 0.358191 -0.652328
2010-10-18 07:04:40 51°13.702 2°55.737 18.5152 0.066411 0.358191 -0.687152
2010-10-18 07:04:46 51°13.703 2°55.738 18.5193 0.066411 0.358191 -0.687152
2010-10-18 07:04:50 51°13.705 2°55.739 18.5204 0.066411 0.358202 -0.687152
2010-10-18 07:04:55 51°13.706 2°55.74 18.5344 0.066411 0.358202 -0.687152
2010-10-18 07:05:00 51°13.708 2°55.742 18.5422 0.066411 0.358202 -0.687152
2010-10-18 07:05:05 51°13.71 2°55.743 18.5464 0.066411 0.358208 -0.687152
2010-10-18 07:05:10 51°13.713 2°55.743 18.5493 0.066411 0.358208 -0.652328
2010-10-18 07:05:14 51°13.715 2°55.744 18.5592 0.066411 0.358225 -0.687152
2010-10-18 07:05:19 51°13.718 2°55.744 18.5583 0.066411 0.358231 -0.687152
2010-10-18 07:05:24 51°13.721 2°55.743 18.5595 0.066411 0.358231 -0.687152
2010-10-18 07:05:29 51°13.724 2°55.742 18.5489 0.066411 0.358236 -0.687152
2010-10-18 07:05:34 51°13.728 2°55.74 18.5615 0.066411 0.358231 -0.687152
2010-10-18 07:05:38 51°13.731 2°55.738 18.5686 0.066411 0.358231 -0.687152
2010-10-18 07:05:43 51°13.734 2°55.735 18.5613 0.066411 0.358236 -0.652328
2010-10-18 07:05:49 51°13.739 2°55.73 18.5471 0.066411 0.358231 -0.687152
2010-10-18 07:05:54 51°13.744 2°55.725 18.5194 0.066411 0.358231 -0.687152
2010-10-18 07:05:58 51°13.748 2°55.72 18.2582 0.066411 0.358316 -0.652328
2010-10-18 07:05:58 51°13.748 2°55.72 18.3236 0.066411 0.358225 -0.721976
2010-10-18 07:05:58 51°13.748 2°55.72 18.2882 0.066411 0.358304 -0.687152
2010-10-18 07:05:58 51°13.748 2°55.72 18.4547 0.066411 0.358185 -0.687152
2010-10-18 07:05:58 51°13.748 2°55.72 18.3305 0.066411 0.358208 -0.687152
2010-10-18 07:05:58 51°13.748 2°55.72 18.4811 0.066411 0.358197 -0.687152
2010-10-18 07:05:58 51°13.748 2°55.72 18.2999 0.066411 0.358316 -0.652328
2010-10-18 07:05:58 51°13.748 2°55.72 18.3186 0.066307 0.357754 -0.652328
2010-10-18 07:05:58 51°13.748 2°55.72 18.3627 0.066411 0.358208 -0.687152
2010-10-18 07:05:58 51°13.748 2°55.72 18.3254 0.066411 0.358282 -0.652328
2010-10-18 07:05:58 51°13.748 2°55.72 18.3305 0.066411 0.358253 -0.687152
2010-10-18 07:05:58 51°13.748 2°55.72 18.3902 0.066411 0.358191 -0.687152
2010-10-18 07:05:58 51°13.748 2°55.72 18.5057 0.066411 0.358214 -0.687152
2010-10-18 07:07:03 51°13.748 2°55.72 18.2985 0.066411 0.358338 -0.687152
2010-10-18 07:07:08 51°13.748 2°55.72 18.3442 0.066307 0.357759 -0.721976
2010-10-18 07:07:14 51°13.748 2°55.72 18.3455 0.066411 0.358333 -0.687152
2010-10-18 07:07:18 51°13.748 2°55.72 18.3885 0.066411 0.358333 -0.721976
2010-10-18 07:07:24 51°13.748 2°55.72 18.3812 0.066411 0.358333 -0.721976
2010-10-18 07:07:29 51°13.748 2°55.72 18.3922 0.066411 0.358333 -0.687152
2010-10-18 07:07:34 51°13.748 2°55.72 18.3938 0.066411 0.358338 -0.652328
2010-10-18 07:07:38 51°13.748 2°55.72 18.3962 0.066307 0.357765 -0.721976
2010-10-18 07:07:44 51°13.748 2°55.72 18.4138 0.066411 0.358355 -0.687152
2010-10-18 07:07:48 51°13.748 2°55.72 18.4264 0.066307 0.357788 -0.687152
2010-10-18 07:07:54 51°13.748 2°55.72 18.4291 0.066307 0.357788 -0.687152
2010-10-18 07:07:58 51°13.748 2°55.72 18.4273 0.066411 0.358378 -0.687152
2010-10-18 07:08:03 51°13.748 2°55.72 18.4331 0.066307 0.357805 -0.687152
2010-10-18 07:08:09 51°13.748 2°55.72 18.3879 0.066411 0.358389 -0.687152
2010-10-18 07:08:14 51°13.748 2°55.72 18.3353 0.066307 0.35781 -0.687152
2010-10-18 07:08:18 51°13.748 2°55.72 18.3793 0.066307 0.357816 -0.687152
2010-10-18 07:08:23 51°13.748 2°55.72 18.3547 0.066307 0.357816 -0.687152
2010-10-18 07:08:28 51°13.748 2°55.72 18.2273 0.066411 0.358395 -0.652328
2010-10-18 07:08:34 51°13.748 2°55.72 18.2586 0.066307 0.357822 -0.721976
2010-10-18 07:08:38 51°13.748 2°55.72 18.2769 0.066307 0.357827 -0.687152
2010-10-18 07:08:43 51°13.748 2°55.72 18.326 0.066307 0.357839 -0.687152
2010-10-18 07:08:49 51°13.748 2°55.72 18.3497 0.066307 0.357844 -0.687152
2010-10-18 07:08:53 51°13.748 2°55.72 18.4156 0.066307 0.357844 -0.687152
2010-10-18 07:08:58 51°14.116 2°55.419 18.437 0.066307 0.357856 -0.652328
2010-10-18 07:09:04 51°14.126 2°55.407 18.4641 0.066307 0.357873 -0.687152
2010-10-18 07:09:08 51°14.133 2°55.401 18.4789 0.066307 0.357884 -0.687152
2010-10-18 07:09:14 51°14.145 2°55.391 18.4682 0.066307 0.35789 -0.687152
2010-10-18 07:09:19 51°14.154 2°55.383 18.4204 0.066307 0.35789 -0.687152
2010-10-18 07:09:24 51°14.165 2°55.375 18.3971 0.066307 0.35789 -0.687152
2010-10-18 07:09:29 51°14.175 2°55.366 18.4047 0.066307 0.357884 -0.687152
2010-10-18 07:09:34 51°14.186 2°55.357 18.4133 0.066307 0.35789 -0.687152
2010-10-18 07:09:38 51°14.194 2°55.349 18.3801 0.066307 0.357884 -0.687152
2010-10-18 07:09:44 51°14.208 2°55.337 18.3129 0.066307 0.357895 -0.721976
2010-10-18 07:09:48 51°14.217 2°55.329 18.4043 0.066307 0.357901 -0.687152
2010-10-18 07:09:54 51°14.231 2°55.317 18.3365 0.066307 0.357901 -0.687152
2010-10-18 07:09:58 51°14.24 2°55.308 18.3206 0.066307 0.357912 -0.652328
2010-10-18 07:10:04 51°14.254 2°55.296 18.3578 0.066307 0.357918 -0.687152
2010-10-18 07:10:09 51°14.266 2°55.285 18.3548 0.066307 0.357929 -0.652328
2010-10-18 07:10:14 51°14.279 2°55.273 18.3994 0.066307 0.357935 -0.687152
2010-10-18 07:10:18 51°14.289 2°55.264 18.3489 0.066307 0.357946 -0.721976
2010-10-18 07:10:24 51°14.304 2°55.25 18.2914 0.066307 0.357946 -0.721976
2010-10-18 07:10:28 51°14.315 2°55.241 18.3311 0.066307 0.357958 -0.652328
2010-10-18 07:10:34 51°14.331 2°55.226 18.3005 0.066307 0.357946 -0.687152
2010-10-18 07:10:38 51°14.341 2°55.216 18.2343 0.066307 0.357946 -0.652328
2010-10-18 07:10:43 51°14.354 2°55.204 18.3074 0.066307 0.357946 -0.687152
2010-10-18 07:10:48 51°14.368 2°55.192 18.3194 0.066307 0.357952 -0.687152
2010-10-18 07:10:54 51°14.384 2°55.177 18.2261 0.066307 0.357952 -0.687152
2010-10-18 07:10:58 51°14.395 2°55.167 18.3077 0.066307 0.357975 -0.687152
2010-10-18 07:11:03 51°14.409 2°55.154 18.2059 0.066307 0.35798 -0.687152
2010-10-18 07:11:09 51°14.425 2°55.138 18.294 0.066307 0.358003 -0.721976
2010-10-18 07:11:14 51°14.439 2°55.124 18.2526 0.066307 0.358009 -0.652328
2010-10-18 07:11:18 51°14.45 2°55.113 18.2899 0.066307 0.35802 -0.687152
2010-10-18 07:11:24 51°14.466 2°55.096 18.2844 0.066307 0.35802 -0.687152
2010-10-18 07:11:29 51°14.48 2°55.082 18.1862 0.066307 0.35802 -0.687152
2010-10-18 07:11:34 51°14.494 2°55.068 18.2547 0.066307 0.358037 -0.687152
2010-10-18 07:11:38 51°14.505 2°55.057 18.2848 0.066307 0.358026 -0.687152
2010-10-18 07:11:43 51°14.52 2°55.043 18.2481 0.066307 0.358031 -0.687152
2010-10-18 07:11:49 51°14.537 2°55.026 18.2581 0.066307 0.358043 -0.652328
2010-10-18 07:11:54 51°14.551 2°55.013 18.1964 0.066307 0.358043 -0.652328
2010-10-18 07:11:58 51°14.563 2°55.002 18.2289 0.066307 0.358043 -0.687152
2010-10-18 07:12:04 51°14.58 2°54.985 18.2574 0.066307 0.358048 -0.687152
2010-10-18 07:12:09 51°14.595 2°54.971 18.2343 0.066307 0.358065 -0.652328
2010-10-18 07:12:14 51°14.609 2°54.956 18.2573 0.066307 0.358071 -0.721976
2010-10-18 07:12:18 51°14.621 2°54.944 18.192 0.066307 0.358082 -0.687152
2010-10-18 07:12:23 51°14.635 2°54.929 18.1599 0.066307 0.358082 -0.687152
2010-10-18 07:12:29 51°14.653 2°54.911 18.2331 0.066307 0.358094 -0.687152
2010-10-18 07:12:34 51°14.667 2°54.895 18.1809 0.066307 0.358094 -0.721976
2010-10-18 07:12:38 51°14.679 2°54.882 18.2553 0.066307 0.358099 -0.652328
2010-10-18 07:12:44 51°14.695 2°54.863 18.2653 0.066307 0.358088 -0.687152
2010-10-18 07:12:49 51°14.708 2°54.845 18.2814 0.066307 0.358111 -0.687152
2010-10-18 07:12:54 51°14.72 2°54.825 18.29 0.066307 0.358111 -0.687152
2010-10-18 07:12:58 51°14.728 2°54.808 18.2693 0.066307 0.358099 -0.721976
2010-10-18 07:13:04 51°14.738 2°54.782 18.2601 0.066307 0.358082 -0.687152
2010-10-18 07:13:09 51°14.745 2°54.759 18.251 0.066307 0.358054 -0.652328
2010-10-18 07:13:14 51°14.75 2°54.735 18.2234 0.066307 0.358048 -0.687152
2010-10-18 07:13:18 51°14.754 2°54.715 18.2595 0.066307 0.358048 -0.687152
2010-10-18 07:13:23 51°14.757 2°54.691 18.2722 0.066307 0.358048 -0.687152
2010-10-18 07:13:29 51°14.759 2°54.661 18.2734 0.066307 0.358065 -0.652328
2010-10-18 07:13:34 51°14.758 2°54.637 18.2458 0.066307 0.358111 -0.687152
2010-10-18 07:13:38 51°14.757 2°54.618 18.2668 0.066307 0.358185 -0.687152
2010-10-18 07:13:44 51°14.753 2°54.59 18.2523 0.066307 0.358253 -0.687152
2010-10-18 07:13:49 51°14.747 2°54.568 18.252 0.066307 0.358287 -0.687152
2010-10-18 07:13:54 51°14.741 2°54.547 18.231 0.066307 0.358287 -0.687152
2010-10-18 07:13:58 51°14.735 2°54.531 18.253 0.066307 0.358304 -0.687152
2010-10-18 07:14:03 51°14.725 2°54.513 18.2206 0.066307 0.358292 -0.652328
2010-10-18 07:14:09 51°14.713 2°54.493 18.0927 0.066307 0.35827 -0.652328
2010-10-18 07:14:14 51°14.702 2°54.478 18.0451 0.066307 0.358247 -0.687152
2010-10-18 07:14:18 51°14.692 2°54.466 18.1386 0.066307 0.358173 -0.652328
2010-10-18 07:14:23 51°14.682 2°54.449 18.1119 0.066307 0.358173 -0.652328
2010-10-18 07:14:29 51°14.669 2°54.429 18.1241 0.066307 0.358122 -0.687152
2010-10-18 07:14:34 51°14.659 2°54.411 18.0753 0.066307 0.358105 -0.652328
2010-10-18 07:14:38 51°14.651 2°54.396 18.1458 0.066307 0.358128 -0.687152
2010-10-18 07:14:44 51°14.64 2°54.373 18.0991 0.066307 0.358162 -0.687152
2010-10-18 07:14:49 51°14.63 2°54.354 18.175 0.066307 0.358202 -0.687152
2010-10-18 07:14:54 51°14.621 2°54.334 18.0953 0.066307 0.358202 -0.687152
2010-10-18 07:14:58 51°14.613 2°54.319 18.1654 0.066307 0.358241 -0.687152
2010-10-18 07:15:04 51°14.602 2°54.296 18.1198 0.066307 0.358247 -0.687152
2010-10-18 07:15:09 51°14.592 2°54.276 18.1759 0.066307 0.358247 -0.687152
2010-10-18 07:15:14 51°14.582 2°54.257 18.1409 0.066307 0.358236 -0.687152
2010-10-18 07:15:18 51°14.574 2°54.241 18.1688 0.066307 0.358224 -0.687152
2010-10-18 07:15:24 51°14.563 2°54.217 18.1259 0.066307 0.358224 -0.687152
2010-10-18 07:15:28 51°14.555 2°54.202 18.1867 0.066307 0.358224 -0.721976
2010-10-18 07:15:34 51°14.544 2°54.178 18.1266 0.066307 0.358224 -0.687152
2010-10-18 07:15:38 51°14.536 2°54.162 18.1514 0.066307 0.358247 -0.687152
2010-10-18 07:15:43 51°14.526 2°54.143 18.1881 0.066307 0.358258 -0.721976
2010-10-18 07:15:49 51°14.515 2°54.119 18.118 0.066307 0.358258 -0.721976
2010-10-18 07:15:54 51°14.505 2°54.099 18.1783 0.066307 0.358264 -0.652328
2010-10-18 07:15:58 51°14.498 2°54.084 18.1492 0.066307 0.358287 -0.687152
2010-10-18 07:16:04 51°14.486 2°54.06 18.1697 0.066307 0.358298 -0.652328
2010-10-18 07:16:09 51°14.476 2°54.04 18.1545 0.066307 0.358298 -0.687152
2010-10-18 07:16:14 51°14.466 2°54.021 18.1788 0.066307 0.358321 -0.687152
2010-10-18 07:16:18 51°14.458 2°54.006 18.1695 0.066307 0.358338 -0.721976
2010-10-18 07:16:23 51°14.448 2°53.986 18.1804 0.066307 0.358338 -0.721976
2010-10-18 07:16:29 51°14.437 2°53.962 18.1233 0.066307 0.358378 -0.687152
2010-10-18 07:16:34 51°14.427 2°53.943 18.1782 0.066307 0.3584 -0.687152
2010-10-18 07:16:38 51°14.42 2°53.927 18.1139 0.066307 0.358412 -0.687152
2010-10-18 07:16:43 51°14.41 2°53.908 18.1384 0.066307 0.358423 -0.687152
2010-10-18 07:16:49 51°14.398 2°53.885 18.1879 0.066307 0.358412 -0.687152
2010-10-18 07:16:54 51°14.388 2°53.865 18.1208 0.066307 0.358412 -0.687152
2010-10-18 07:16:58 51°14.38 2°53.85 18.1768 0.066307 0.3584 -0.687152
2010-10-18 07:17:04 51°14.368 2°53.827 18.1429 0.066307 0.358378 -0.687152
2010-10-18 07:17:09 51°14.358 2°53.807 18.1644 0.066307 0.358378 -0.652328
2010-10-18 07:17:14 51°14.348 2°53.788 18.132 0.066307 0.358383 -0.687152
2010-10-18 07:17:18 51°14.34 2°53.773 18.1725 0.066307 0.358383 -0.687152
2010-10-18 07:17:23 51°14.331 2°53.753 18.1606 0.066307 0.358395 -0.652328
2010-10-18 07:17:29 51°14.319 2°53.73 18.1634 0.066307 0.358418 -0.721976
2010-10-18 07:17:34 51°14.309 2°53.71 18.098 0.066307 0.35844 -0.652328
2010-10-18 07:17:38 51°14.301 2°53.695 18.158 0.066307 0.358457 -0.687152
2010-10-18 07:17:44 51°14.289 2°53.671 18.094 0.066307 0.358457 -0.652328
2010-10-18 07:17:48 51°14.281 2°53.656 18.1413 0.066307 0.358474 -0.687152
2010-10-18 07:17:54 51°14.269 2°53.632 18.1404 0.066307 0.358474 -0.687152
2010-10-18 07:17:58 51°14.261 2°53.617 18.1638 0.066307 0.358446 -0.687152
2010-10-18 07:18:03 51°14.251 2°53.597 18.1522 0.066307 0.358446 -0.687152
2010-10-18 07:18:09 51°14.239 2°53.574 18.1309 0.066307 0.358435 -0.687152
2010-10-18 07:18:14 51°14.229 2°53.555 18.1608 0.066307 0.358435 -0.687152
2010-10-18 07:18:18 51°14.221 2°53.539 18.1808 0.066307 0.358452 -0.721976
2010-10-18 07:18:23 51°14.212 2°53.519 18.1133 0.066307 0.358452 -0.721976
2010-10-18 07:18:29 51°14.199 2°53.496 18.1696 0.066307 0.358486 -0.652328
2010-10-18 07:18:34 51°14.19 2°53.476 18.1238 0.066307 0.358514 -0.687152
2010-10-18 07:18:38 51°14.181 2°53.461 18.182 0.066307 0.358543 -0.687152
2010-10-18 07:18:44 51°14.17 2°53.438 18.1248 0.066307 0.358537 -0.687152
2010-10-18 07:18:49 51°14.16 2°53.418 18.1655 0.066307 0.358537 -0.687152
2010-10-18 07:18:54 51°14.15 2°53.398 18.1477 0.066307 0.358537 -0.687152
2010-10-18 07:18:58 51°14.142 2°53.383 18.1767 0.066307 0.358514 -0.687152
2010-10-18 07:19:03 51°14.132 2°53.364 18.1446 0.066307 0.358486 -0.687152
2010-10-18 07:19:09 51°14.12 2°53.34 18.131 0.066307 0.358474 -0.687152
2010-10-18 07:19:14 51°14.11 2°53.321 18.1376 0.066307 0.358463 -0.687152
2010-10-18 07:19:18 51°14.103 2°53.304 18.1596 0.066307 0.358463 -0.687152
2010-10-18 07:19:24 51°14.092 2°53.28 18.1584 0.066307 0.358463 -0.652328
2010-10-18 07:19:29 51°14.083 2°53.26 18.16 0.066202 0.357911 -0.687152
2010-10-18 07:19:34 51°14.074 2°53.239 18.1714 0.066307 0.358526 -0.687152
2010-10-18 07:19:38 51°14.067 2°53.222 18.1753 0.066307 0.35856 -0.687152
2010-10-18 07:19:43 51°14.058 2°53.201 18.1578 0.066307 0.358582 -0.721976
2010-10-18 07:19:49 51°14.047 2°53.176 18.1452 0.066202 0.358019 -0.687152
2010-10-18 07:19:54 51°14.038 2°53.156 18.1678 0.066202 0.358019 -0.687152
2010-10-18 07:19:58 51°14.031 2°53.139 18.1434 0.066202 0.358014 -0.687152
2010-10-18 07:20:04 51°14.021 2°53.114 18.1703 0.066202 0.358008 -0.721976
2010-10-18 07:20:09 51°14.013 2°53.092 18.1564 0.066307 0.358571 -0.721976
2010-10-18 07:20:14 51°14.004 2°53.071 18.1757 0.066202 0.357985 -0.687152
2010-10-18 07:20:18 51°13.997 2°53.055 18.1542 0.066202 0.357985 -0.721976
2010-10-18 07:20:23 51°13.988 2°53.034 18.1846 0.066202 0.357985 -0.721976
2010-10-18 07:20:29 51°13.978 2°53.009 18.1174 0.066202 0.357997 -0.687152
2010-10-18 07:20:34 51°13.968 2°52.988 18.1935 0.066202 0.358019 -0.687152
2010-10-18 07:20:38 51°13.962 2°52.971 18.1459 0.066202 0.358025 -0.652328
2010-10-18 07:20:43 51°13.953 2°52.95 18.1794 0.066202 0.358053 -0.687152
2010-10-18 07:20:49 51°13.942 2°52.925 18.1456 0.066202 0.358059 -0.721976
2010-10-18 07:20:54 51°13.933 2°52.904 18.1637 0.066202 0.358059 -0.721976
2010-10-18 07:20:58 51°13.926 2°52.887 18.179 0.066202 0.358053 -0.687152
2010-10-18 07:21:04 51°13.915 2°52.862 18.1451 0.066202 0.358065 -0.721976
2010-10-18 07:21:09 51°13.906 2°52.842 18.1896 0.066202 0.35807 -0.687152
2010-10-18 07:21:14 51°13.898 2°52.821 18.1184 0.066202 0.358082 -0.687152
2010-10-18 07:21:18 51°13.891 2°52.804 18.1834 0.066202 0.358099 -0.687152
2010-10-18 07:21:23 51°13.882 2°52.783 18.1483 0.066202 0.358099 -0.687152
2010-10-18 07:21:29 51°13.871 2°52.758 18.1924 0.066202 0.358099 -0.687152
2010-10-18 07:21:34 51°13.862 2°52.737 18.1617 0.066202 0.358099 -0.687152
2010-10-18 07:21:38 51°13.855 2°52.72 18.1454 0.066202 0.358099 -0.687152
2010-10-18 07:21:44 51°13.845 2°52.695 18.1717 0.066202 0.358082 -0.687152
2010-10-18 07:21:49 51°13.837 2°52.673 18.1525 0.066202 0.358076 -0.687152
2010-10-18 07:21:54 51°13.829 2°52.651 18.1398 0.066202 0.358076 -0.687152
2010-10-18 07:21:58 51°13.823 2°52.633 18.1989 0.066202 0.358082 -0.687152
2010-10-18 07:22:03 51°13.815 2°52.611 18.1488 0.066202 0.358076 -0.687152
2010-10-18 07:22:09 51°13.806 2°52.585 18.1884 0.066202 0.358105 -0.652328
2010-10-18 07:22:14 51°13.798 2°52.563 18.1495 0.066202 0.35811 -0.687152
2010-10-18 07:22:18 51°13.791 2°52.546 18.1968 0.066202 0.358122 -0.687152
2010-10-18 07:22:23 51°13.784 2°52.524 18.1255 0.066202 0.358122 -0.687152
2010-10-18 07:22:29 51°13.773 2°52.498 18.1784 0.066202 0.358133 -0.687152
2010-10-18 07:22:34 51°13.765 2°52.476 18.1265 0.066202 0.358139 -0.687152
2010-10-18 07:22:38 51°13.759 2°52.458 18.1906 0.066202 0.35815 -0.687152
2010-10-18 07:22:44 51°13.75 2°52.431 18.1433 0.066202 0.358167 -0.687152
2010-10-18 07:22:49 51°13.742 2°52.41 18.1644 0.066202 0.358184 -0.687152
2010-10-18 07:22:54 51°13.734 2°52.388 18.1605 0.066202 0.358184 -0.687152
2010-10-18 07:22:58 51°13.728 2°52.37 18.1622 0.066202 0.358196 -0.687152
2010-10-18 07:23:03 51°13.721 2°52.35 18.1841 0.066202 0.358218 -0.687152
2010-10-18 07:23:09 51°13.713 2°52.327 18.1983 0.066202 0.358224 -0.687152
2010-10-18 07:23:14 51°13.706 2°52.31 18.2159 0.066202 0.358218 -0.687152
2010-10-18 07:23:18 51°13.702 2°52.297 18.2175 0.066202 0.358201 -0.687152
2010-10-18 07:23:24 51°13.695 2°52.28 18.2189 0.066202 0.358201 -0.687152
2010-10-18 07:23:29 51°13.689 2°52.266 18.2247 0.066202 0.35819 -0.687152
2010-10-18 07:23:34 51°13.684 2°52.254 18.2195 0.066202 0.358184 -0.687152
2010-10-18 07:23:38 51°13.68 2°52.245 18.2166 0.066202 0.358173 -0.687152
2010-10-18 07:23:43 51°13.675 2°52.235 18.2189 0.066202 0.358173 -0.721976
2010-10-18 07:23:49 51°13.67 2°52.224 18.2426 0.066202 0.35819 -0.687152
2010-10-18 07:23:54 51°13.665 2°52.215 18.2118 0.066202 0.35819 -0.687152
2010-10-18 07:23:58 51°13.662 2°52.208 18.2115 0.066202 0.358207 -0.652328
2010-10-18 07:24:04 51°13.656 2°52.199 18.1955 0.066202 0.358224 -0.687152
2010-10-18 07:24:09 51°13.652 2°52.19 18.2116 0.066202 0.358247 -0.687152
2010-10-18 07:24:14 51°13.648 2°52.182 18.2234 0.066202 0.358264 -0.687152
2010-10-18 07:24:18 51°13.645 2°52.175 18.1942 0.066202 0.35827 -0.687152
2010-10-18 07:24:23 51°13.641 2°52.166 18.2156 0.066202 0.35827 -0.687152
2010-10-18 07:24:29 51°13.638 2°52.154 18.196 0.066202 0.358275 -0.687152
2010-10-18 07:24:34 51°13.635 2°52.144 18.2231 0.066202 0.358275 -0.687152
2010-10-18 07:24:38 51°13.633 2°52.135 18.2151 0.066202 0.358275 -0.687152
2010-10-18 07:24:43 51°13.631 2°52.124 18.222 0.066202 0.358298 -0.652328
2010-10-18 07:24:49 51°13.628 2°52.11 18.1958 0.066202 0.358298 -0.652328
2010-10-18 07:24:54 51°13.625 2°52.099 18.2125 0.066202 0.358309 -0.687152
2010-10-18 07:24:58 51°13.623 2°52.089 18.2372 0.066202 0.358321 -0.721976
2010-10-18 07:25:04 51°13.619 2°52.075 18.2322 0.066202 0.358338 -0.687152
2010-10-18 07:25:09 51°13.616 2°52.063 18.2048 0.066202 0.358338 -0.687152
2010-10-18 07:25:14 51°13.613 2°52.051 18.2238 0.066202 0.358344 -0.687152
2010-10-18 07:25:18 51°13.61 2°52.041 18.2094 0.066202 0.358338 -0.721976
2010-10-18 07:25:23 51°13.606 2°52.029 18.2137 0.066202 0.358338 -0.721976
2010-10-18 07:25:29 51°13.602 2°52.014 18.2236 0.066202 0.358344 -0.687152
2010-10-18 07:25:34 51°13.597 2°52.001 18.1667 0.066202 0.358349 -0.687152
2010-10-18 07:25:38 51°13.594 2°51.99 18.181 0.066202 0.358349 -0.687152
2010-10-18 07:25:44 51°13.59 2°51.975 18.1943 0.066202 0.358349 -0.652328
2010-10-18 07:25:49 51°13.586 2°51.961 18.202 0.066202 0.358355 -0.652328
2010-10-18 07:25:54 51°13.582 2°51.947 18.1902 0.066202 0.358355 -0.652328
2010-10-18 07:25:58 51°13.579 2°51.936 18.2121 0.066202 0.358361 -0.652328
2010-10-18 07:26:03 51°13.576 2°51.922 18.2005 0.066202 0.358366 -0.687152
2010-10-18 07:26:09 51°13.572 2°51.905 18.1869 0.066202 0.358378 -0.687152
2010-10-18 07:26:14 51°13.569 2°51.89 18.205 0.066202 0.358395 -0.687152
2010-10-18 07:26:18 51°13.566 2°51.879 18.2117 0.066202 0.358395 -0.687152
2010-10-18 07:26:23 51°13.563 2°51.864 18.231 0.066202 0.358401 -0.687152
2010-10-18 07:26:29 51°13.559 2°51.847 18.2177 0.066202 0.358406 -0.652328
2010-10-18 07:26:34 51°13.555 2°51.832 18.2238 0.066202 0.358418 -0.687152
2010-10-18 07:26:38 51°13.552 2°51.82 18.2051 0.066202 0.358423 -0.687152
2010-10-18 07:26:44 51°13.548 2°51.803 18.1879 0.066098 0.357837 -0.687152
2010-10-18 07:26:49 51°13.545 2°51.789 18.2084 0.066202 0.358418 -0.721976
2010-10-18 07:26:54 51°13.541 2°51.774 18.1939 0.066202 0.358418 -0.721976
2010-10-18 07:26:58 51°13.538 2°51.762 18.2052 0.066202 0.358418 -0.652328
2010-10-18 07:27:03 51°13.535 2°51.747 18.1835 0.066202 0.358423 -0.687152
2010-10-18 07:27:09 51°13.53 2°51.73 18.1895 0.066202 0.358435 -0.652328
2010-10-18 07:27:14 51°13.527 2°51.715 18.2005 0.066202 0.35844 -0.687152
2010-10-18 07:27:18 51°13.525 2°51.704 18.2144 0.066202 0.358458 -0.687152
2010-10-18 07:27:24 51°13.521 2°51.688 18.1962 0.066202 0.358458 -0.687152
2010-10-18 07:27:29 51°13.518 2°51.675 18.2089 0.066098 0.357888 -0.652328
2010-10-18 07:27:34 51°13.516 2°51.662 18.1943 0.066202 0.358475 -0.687152
2010-10-18 07:27:38 51°13.514 2°51.653 18.2242 0.066098 0.357911 -0.652328
2010-10-18 07:27:43 51°13.512 2°51.641 18.2115 0.066202 0.358492 -0.687152
2010-10-18 07:27:49 51°13.509 2°51.627 18.2248 0.066098 0.357916 -0.687152
2010-10-18 07:27:54 51°13.508 2°51.617 18.2165 0.066098 0.357916 -0.687152
2010-10-18 07:27:58 51°13.507 2°51.608 18.1959 0.066202 0.358503 -0.687152
2010-10-18 07:28:04 51°13.505 2°51.597 18.2297 0.066202 0.358497 -0.687152
2010-10-18 07:28:09 51°13.503 2°51.587 18.2361 0.066098 0.357922 -0.687152
2010-10-18 07:28:14 51°13.502 2°51.578 18.2229 0.066098 0.357933 -0.687152
2010-10-18 07:28:18 51°13.501 2°51.57 18.2355 0.066098 0.357939 -0.687152
2010-10-18 07:28:23 51°13.499 2°51.562 18.2219 0.066098 0.357939 -0.687152
2010-10-18 07:28:29 51°13.497 2°51.552 18.2142 0.066098 0.357951 -0.687152
2010-10-18 07:28:34 51°13.496 2°51.544 18.2184 0.066098 0.357956 -0.687152
2010-10-18 07:28:38 51°13.495 2°51.537 18.2261 0.066098 0.357968 -0.652328
2010-10-18 07:28:43 51°13.493 2°51.53 18.2074 0.066098 0.357979 -0.652328
2010-10-18 07:28:49 51°13.492 2°51.521 18.2181 0.066098 0.35799 -0.687152
2010-10-18 07:28:54 51°13.49 2°51.515 18.2416 0.066098 0.35799 -0.687152
2010-10-18 07:28:58 51°13.488 2°51.51 18.2238 0.066098 0.358007 -0.687152
2010-10-18 07:29:04 51°13.486 2°51.503 18.2368 0.066098 0.358019 -0.687152
2010-10-18 07:29:09 51°13.484 2°51.498 18.2313 0.066098 0.358025 -0.687152
2010-10-18 07:29:14 51°13.481 2°51.494 18.2445 0.066098 0.358025 -0.652328
2010-10-18 07:29:18 51°13.479 2°51.491 18.2395 0.066098 0.358025 -0.687152
2010-10-18 07:29:23 51°13.476 2°51.487 18.2242 0.066098 0.358025 -0.687152
2010-10-18 07:29:29 51°13.473 2°51.484 18.2365 0.066098 0.35803 -0.652328
2010-10-18 07:29:34 51°13.469 2°51.482 18.2181 0.066098 0.358025 -0.721976
2010-10-18 07:29:38 51°13.467 2°51.481 18.2318 0.066098 0.35803 -0.687152
2010-10-18 07:29:44 51°13.463 2°51.48 18.2214 0.066098 0.35803 -0.687152
2010-10-18 07:29:49 51°13.459 2°51.48 18.2358 0.066098 0.358042 -0.687152
2010-10-18 07:29:54 51°13.455 2°51.48 18.2074 0.066098 0.358042 -0.687152
2010-10-18 07:29:58 51°13.451 2°51.481 18.2383 0.066098 0.358053 -0.721976
2010-10-18 07:30:03 51°13.447 2°51.482 18.2237 0.066098 0.358064 -0.687152
2010-10-18 07:30:09 51°13.441 2°51.483 18.2173 0.066098 0.358059 -0.687152
2010-10-18 07:30:14 51°13.435 2°51.485 18.1767 0.066098 0.358059 -0.721976
2010-10-18 07:30:18 51°13.431 2°51.486 18.2146 0.066098 0.358059 -0.687152
2010-10-18 07:30:23 51°13.424 2°51.488 18.2068 0.066098 0.358059 -0.687152
2010-10-18 07:30:29 51°13.416 2°51.49 18.1729 0.066098 0.358059 -0.687152
2010-10-18 07:30:34 51°13.41 2°51.491 18.2195 0.066098 0.358064 -0.687152
2010-10-18 07:30:38 51°13.404 2°51.492 18.166 0.066098 0.358076 -0.687152
2010-10-18 07:30:44 51°13.396 2°51.492 18.2007 0.066098 0.358087 -0.687152
2010-10-18 07:30:49 51°13.39 2°51.493 18.1883 0.066098 0.358104 -0.652328
2010-10-18 07:30:54 51°13.384 2°51.493 18.2063 0.066098 0.358104 -0.652328
2010-10-18 07:30:58 51°13.379 2°51.492 18.1925 0.066098 0.358116 -0.687152
2010-10-18 07:31:03 51°13.373 2°51.492 18.1898 0.066098 0.358127 -0.687152
2010-10-18 07:31:09 51°13.366 2°51.491 18.2193 0.066098 0.358139 -0.687152
2010-10-18 07:31:14 51°13.361 2°51.49 18.1759 0.066098 0.358139 -0.687152
2010-10-18 07:31:18 51°13.358 2°51.489 18.2192 0.066098 0.358144 -0.687152
2010-10-18 07:31:24 51°13.352 2°51.488 18.212 0.066098 0.358144 -0.687152
2010-10-18 07:31:29 51°13.347 2°51.486 18.2156 0.066098 0.358139 -0.721976
2010-10-18 07:31:34 51°13.343 2°51.485 18.2241 0.066098 0.358139 -0.687152
2010-10-18 07:31:38 51°13.339 2°51.483 18.223 0.066098 0.358139 -0.652328
2010-10-18 07:31:43 51°13.335 2°51.481 18.2106 0.066098 0.358144 -0.652328
2010-10-18 07:31:49 51°13.329 2°51.479 18.2243 0.066098 0.358167 -0.721976
2010-10-18 07:31:54 51°13.325 2°51.476 18.1974 0.066098 0.358167 -0.721976
2010-10-18 07:31:58 51°13.322 2°51.474 18.2234 0.066098 0.358184 -0.687152
2010-10-18 07:32:04 51°13.317 2°51.471 18.2303 0.066098 0.358201 -0.687152
2010-10-18 07:32:09 51°13.313 2°51.468 18.2199 0.066098 0.358218 -0.687152
2010-10-18 07:32:14 51°13.31 2°51.464 18.217 0.066098 0.358224 -0.687152
2010-10-18 07:32:18 51°13.307 2°51.462 18.2045 0.066098 0.358235 -0.721976
2010-10-18 07:32:23 51°13.303 2°51.459 18.2205 0.066098 0.358235 -0.721976
2010-10-18 07:32:29 51°13.299 2°51.454 18.2038 0.066098 0.358241 -0.652328
2010-10-18 07:32:34 51°13.295 2°51.451 18.2247 0.066098 0.358253 -0.687152
2010-10-18 07:32:38 51°13.292 2°51.448 18.2229 0.066098 0.358253 -0.721976
2010-10-18 07:32:43 51°13.288 2°51.445 18.2344 0.066098 0.358258 -0.687152
2010-10-18 07:32:49 51°13.284 2°51.441 18.2019 0.066098 0.358264 -0.687152
2010-10-18 07:32:54 51°13.28 2°51.438 18.2376 0.066098 0.358264 -0.687152
2010-10-18 07:32:58 51°13.277 2°51.435 18.2147 0.066098 0.35827 -0.652328
2010-10-18 07:33:04 51°13.272 2°51.432 18.2256 0.066098 0.358281 -0.687152
2010-10-18 07:33:09 51°13.268 2°51.429 18.2074 0.066098 0.358287 -0.652328
2010-10-18 07:33:14 51°13.265 2°51.426 18.2249 0.066098 0.358287 -0.687152
2010-10-18 07:33:18 51°13.262 2°51.424 18.2181 0.066098 0.358287 -0.687152
2010-10-18 07:33:23 51°13.257 2°51.422 18.2292 0.066098 0.358287 -0.687152
2010-10-18 07:33:29 51°13.253 2°51.42 18.2135 0.066098 0.358298 -0.721976
2010-10-18 07:33:34 51°13.249 2°51.418 18.2373 0.066098 0.35831 -0.721976
2010-10-18 07:33:38 51°13.245 2°51.417 18.2293 0.066098 0.358315 -0.687152
2010-10-18 07:33:44 51°13.24 2°51.414 18.2179 0.066098 0.358332 -0.687152
2010-10-18 07:33:49 51°13.236 2°51.413 18.2328 0.065994 0.357762 -0.652328
2010-10-18 07:33:54 51°13.231 2°51.412 18.242 0.065994 0.357762 -0.652328
2010-10-18 07:33:58 51°13.228 2°51.411 18.2242 0.065994 0.357762 -0.687152
2010-10-18 07:34:03 51°13.224 2°51.41 18.2209 0.066098 0.358344 -0.721976
2010-10-18 07:34:09 51°13.219 2°51.409 18.2351 0.065994 0.357751 -0.687152
2010-10-18 07:34:14 51°13.215 2°51.408 18.19 0.066098 0.358327 -0.721976
2010-10-18 07:34:18 51°13.212 2°51.408 18.2219 0.065994 0.357739 -0.687152
2010-10-18 07:34:23 51°13.208 2°51.407 18.2288 0.065994 0.357739 -0.687152
2010-10-18 07:34:29 51°13.203 2°51.405 18.2283 0.065994 0.357739 -0.687152
2010-10-18 07:34:34 51°13.199 2°51.405 18.2257 0.065994 0.357745 -0.721976
2010-10-18 07:34:38 51°13.196 2°51.404 18.1981 0.066098 0.358338 -0.652328
2010-10-18 07:34:44 51°13.191 2°51.403 18.2227 0.065994 0.357779 -0.652328
2010-10-18 07:34:49 51°13.187 2°51.402 18.2156 0.066098 0.358378 -0.687152
2010-10-18 07:34:54 51°13.182 2°51.401 18.2396 0.066098 0.358378 -0.687152
2010-10-18 07:34:58 51°13.179 2°51.4 18.2225 0.065994 0.357819 -0.687152
2010-10-18 07:35:03 51°13.175 2°51.399 18.2318 0.065994 0.357836 -0.652328
2010-10-18 07:35:09 51°13.17 2°51.398 18.2077 0.065994 0.357842 -0.687152
2010-10-18 07:35:14 51°13.166 2°51.397 18.2339 0.065994 0.357836 -0.652328
2010-10-18 07:35:18 51°13.163 2°51.396 18.2222 0.065994 0.357836 -0.652328
2010-10-18 07:35:24 51°13.158 2°51.394 18.2227 0.065994 0.357836 -0.721976
2010-10-18 07:35:29 51°13.155 2°51.393 18.2231 0.065994 0.357836 -0.687152
2010-10-18 07:35:34 51°13.15 2°51.392 18.232 0.065994 0.357831 -0.652328
2010-10-18 07:35:38 51°13.147 2°51.391 18.2234 0.065994 0.357825 -0.687152
2010-10-18 07:35:43 51°13.143 2°51.39 18.2319 0.065994 0.357848 -0.687152
2010-10-18 07:35:49 51°13.138 2°51.389 18.2163 0.065994 0.357865 -0.721976
2010-10-18 07:35:54 51°13.134 2°51.387 18.2449 0.065994 0.357865 -0.721976
2010-10-18 07:35:58 51°13.131 2°51.386 18.1987 0.065994 0.357882 -0.687152
2010-10-18 07:36:04 51°13.126 2°51.385 18.232 0.065994 0.357905 -0.687152
2010-10-18 07:36:09 51°13.122 2°51.383 18.2223 0.065994 0.357916 -0.687152
2010-10-18 07:36:14 51°13.118 2°51.382 18.2364 0.065994 0.357916 -0.687152
2010-10-18 07:36:18 51°13.115 2°51.381 18.2281 0.065994 0.357922 -0.687152
2010-10-18 07:36:23 51°13.111 2°51.38 18.2439 0.065994 0.357922 -0.687152
2010-10-18 07:36:29 51°13.106 2°51.379 18.238 0.065994 0.357916 -0.721976
2010-10-18 07:36:34 51°13.102 2°51.377 18.2389 0.065994 0.357916 -0.687152
2010-10-18 07:36:38 51°13.099 2°51.376 18.2212 0.065994 0.357916 -0.687152
2010-10-18 07:36:43 51°13.094 2°51.376 18.2468 0.065994 0.357922 -0.652328
2010-10-18 07:36:49 51°13.089 2°51.374 18.226 0.065994 0.357922 -0.721976
2010-10-18 07:36:54 51°13.086 2°51.373 18.2404 0.065994 0.357922 -0.721976
2010-10-18 07:36:58 51°13.083 2°51.372 18.2422 0.065994 0.357933 -0.687152
2010-10-18 07:37:04 51°13.078 2°51.371 18.2315 0.065994 0.357939 -0.687152
2010-10-18 07:37:09 51°13.074 2°51.37 18.2471 0.065994 0.357956 -0.687152
2010-10-18 07:37:14 51°13.07 2°51.368 18.2364 0.065994 0.357962 -0.687152
2010-10-18 07:37:18 51°13.067 2°51.368 18.2371 0.065994 0.357973 -0.721976
2010-10-18 07:37:23 51°13.063 2°51.366 18.2461 0.065994 0.357973 -0.721976
2010-10-18 07:37:29 51°13.058 2°51.365 18.2503 0.065994 0.357985 -0.687152
2010-10-18 07:37:34 51°13.054 2°51.363 18.2296 0.065994 0.357985 -0.687152
2010-10-18 07:37:38 51°13.051 2°51.362 18.2544 0.065994 0.357985 -0.687152
2010-10-18 07:37:44 51°13.046 2°51.361 18.2481 0.065994 0.357996 -0.687152
2010-10-18 07:37:49 51°13.042 2°51.36 18.2557 0.065994 0.358002 -0.652328
2010-10-18 07:37:54 51°13.038 2°51.359 18.2498 0.065994 0.358002 -0.652328
2010-10-18 07:37:58 51°13.035 2°51.358 18.2631 0.065994 0.358007 -0.721976
2010-10-18 07:38:03 51°13.031 2°51.357 18.2451 0.065994 0.358013 -0.687152
2010-10-18 07:38:09 51°13.026 2°51.356 18.2505 0.065994 0.358024 -0.687152
2010-10-18 07:38:14 51°13.023 2°51.355 18.2507 0.065994 0.358036 -0.721976
2010-10-18 07:38:18 51°13.019 2°51.354 18.2384 0.065994 0.358042 -0.687152
2010-10-18 07:38:23 51°13.016 2°51.353 18.2421 0.065994 0.358042 -0.687152
2010-10-18 07:38:29 51°13.011 2°51.352 18.2607 0.065994 0.358047 -0.687152
2010-10-18 07:38:34 51°13.007 2°51.351 18.2583 0.065994 0.358053 -0.687152
2010-10-18 07:38:38 51°13.003 2°51.35 18.258 0.065994 0.358053 -0.721976
2010-10-18 07:38:44 51°12.999 2°51.348 18.2475 0.065994 0.358053 -0.721976
2010-10-18 07:38:49 51°12.995 2°51.347 18.2544 0.065994 0.358047 -0.652328
2010-10-18 07:38:54 51°12.991 2°51.345 18.257 0.065994 0.358047 -0.652328
2010-10-18 07:38:58 51°12.988 2°51.344 18.2489 0.065994 0.358064 -0.687152
2010-10-18 07:39:03 51°12.985 2°51.342 18.2123 0.065994 0.35807 -0.652328
2010-10-18 07:39:09 51°12.98 2°51.339 18.257 0.065994 0.358082 -0.687152
2010-10-18 07:39:14 51°12.976 2°51.337 18.2664 0.065994 0.358087 -0.687152
2010-10-18 07:39:18 51°12.974 2°51.335 18.2686 0.065994 0.35811 -0.687152
2010-10-18 07:39:24 51°12.971 2°51.331 18.2612 0.065994 0.35811 -0.687152
2010-10-18 07:39:29 51°12.967 2°51.328 18.2649 0.065994 0.358116 -0.721976
2010-10-18 07:39:34 51°12.963 2°51.325 18.2701 0.065994 0.358122 -0.721976
2010-10-18 07:39:38 51°12.96 2°51.322 18.2557 0.065994 0.358133 -0.721976
2010-10-18 07:39:43 51°12.957 2°51.318 18.2494 0.065994 0.358127 -0.687152
2010-10-18 07:39:49 51°12.953 2°51.313 18.2499 0.065994 0.358133 -0.687152
2010-10-18 07:39:54 51°12.95 2°51.309 18.2452 0.065994 0.358133 -0.687152
2010-10-18 07:39:58 51°12.948 2°51.305 18.2652 0.065994 0.358133 -0.687152
2010-10-18 07:40:04 51°12.944 2°51.299 18.2648 0.065994 0.358139 -0.687152
2010-10-18 07:40:09 51°12.941 2°51.293 18.2548 0.065994 0.35815 -0.687152
2010-10-18 07:40:14 51°12.938 2°51.288 18.2708 0.065994 0.358161 -0.687152
2010-10-18 07:40:18 51°12.936 2°51.284 18.2702 0.065994 0.358173 -0.687152
2010-10-18 07:40:23 51°12.933 2°51.277 18.2732 0.065994 0.358173 -0.687152
2010-10-18 07:40:29 51°12.929 2°51.27 18.2679 0.06589 0.357602 -0.687152
2010-10-18 07:40:34 51°12.927 2°51.264 18.2701 0.06589 0.357613 -0.687152
2010-10-18 07:40:38 51°12.925 2°51.259 18.2672 0.065994 0.358201 -0.687152
2010-10-18 07:40:43 51°12.922 2°51.252 18.262 0.065994 0.358196 -0.687152
2010-10-18 07:40:49 51°12.918 2°51.245 18.2789 0.06589 0.357625 -0.687152
2010-10-18 07:40:54 51°12.916 2°51.238 18.2842 0.06589 0.357625 -0.687152
2010-10-18 07:40:58 51°12.914 2°51.233 18.2607 0.065994 0.358207 -0.687152
2010-10-18 07:41:04 51°12.911 2°51.225 18.2683 0.06589 0.357636 -0.687152
2010-10-18 07:41:09 51°12.908 2°51.219 18.2696 0.06589 0.357642 -0.687152
2010-10-18 07:41:14 51°12.905 2°51.212 18.2582 0.06589 0.357648 -0.687152
2010-10-18 07:41:18 51°12.903 2°51.207 18.2675 0.06589 0.357665 -0.687152
2010-10-18 07:41:23 51°12.901 2°51.2 18.2904 0.06589 0.357665 -0.687152
2010-10-18 07:41:29 51°12.897 2°51.192 18.264 0.06589 0.35767 -0.687152
2010-10-18 07:41:34 51°12.894 2°51.186 18.2834 0.06589 0.357688 -0.687152
2010-10-18 07:41:38 51°12.892 2°51.181 18.2766 0.06589 0.357693 -0.687152
2010-10-18 07:41:44 51°12.888 2°51.174 18.2808 0.06589 0.357688 -0.687152
2010-10-18 07:41:49 51°12.885 2°51.167 18.278 0.06589 0.357688 -0.687152
2010-10-18 07:41:54 51°12.882 2°51.162 18.2814 0.06589 0.357688 -0.687152
2010-10-18 07:41:58 51°12.879 2°51.157 18.276 0.06589 0.357676 -0.721976
2010-10-18 07:42:03 51°12.876 2°51.152 18.2953 0.06589 0.357688 -0.687152
2010-10-18 07:42:09 51°12.872 2°51.145 18.2737 0.06589 0.357682 -0.687152
2010-10-18 07:42:14 51°12.868 2°51.139 18.2809 0.06589 0.357693 -0.687152
2010-10-18 07:42:18 51°12.865 2°51.135 18.2891 0.06589 0.357699 -0.687152
2010-10-18 07:42:23 51°12.861 2°51.13 18.2845 0.06589 0.357699 -0.687152
2010-10-18 07:42:29 51°12.857 2°51.124 18.2852 0.06589 0.35771 -0.721976
2010-10-18 07:42:34 51°12.853 2°51.119 18.277 0.06589 0.357722 -0.687152
2010-10-18 07:42:38 51°12.85 2°51.115 18.2725 0.06589 0.357739 -0.687152
2010-10-18 07:42:44 51°12.845 2°51.109 18.2941 0.06589 0.357745 -0.687152
2010-10-18 07:42:49 51°12.841 2°51.104 18.2652 0.06589 0.357745 -0.687152
2010-10-18 07:42:54 51°12.837 2°51.099 18.2834 0.06589 0.357756 -0.687152
2010-10-18 07:42:58 51°12.834 2°51.095 18.2833 0.06589 0.357756 -0.687152
2010-10-18 07:43:03 51°12.83 2°51.09 18.2899 0.06589 0.357762 -0.687152
2010-10-18 07:43:09 51°12.826 2°51.084 18.2823 0.06589 0.357762 -0.687152
2010-10-18 07:43:14 51°12.822 2°51.079 18.2768 0.06589 0.357762 -0.687152
2010-10-18 07:43:18 51°12.819 2°51.075 18.3007 0.06589 0.357768 -0.687152
2010-10-18 07:43:24 51°12.815 2°51.068 18.2849 0.06589 0.357768 -0.687152
2010-10-18 07:43:29 51°12.811 2°51.063 18.292 0.06589 0.357773 -0.687152
2010-10-18 07:43:34 51°12.807 2°51.057 18.3027 0.06589 0.35779 -0.721976
2010-10-18 07:43:38 51°12.804 2°51.053 18.296 0.06589 0.357802 -0.687152
2010-10-18 07:43:43 51°12.801 2°51.048 18.2891 0.06589 0.357813 -0.687152
2010-10-18 07:43:49 51°12.797 2°51.041 18.2936 0.06589 0.357825 -0.687152
2010-10-18 07:43:54 51°12.793 2°51.035 18.2888 0.06589 0.357825 -0.687152
2010-10-18 07:43:58 51°12.79 2°51.031 18.3007 0.06589 0.35783 -0.687152
2010-10-18 07:44:04 51°12.786 2°51.024 18.305 0.06589 0.35783 -0.687152
2010-10-18 07:44:09 51°12.783 2°51.018 18.304 0.06589 0.357836 -0.721976
2010-10-18 07:44:14 51°12.779 2°51.012 18.2974 0.06589 0.357836 -0.652328
2010-10-18 07:44:18 51°12.776 2°51.008 18.3068 0.06589 0.357847 -0.652328
2010-10-18 07:44:23 51°12.773 2°51.002 18.2881 0.06589 0.357847 -0.652328
2010-10-18 07:44:29 51°12.769 2°50.996 18.3091 0.06589 0.357853 -0.687152
2010-10-18 07:44:34 51°12.765 2°50.99 18.3032 0.06589 0.357859 -0.687152
2010-10-18 07:44:38 51°12.763 2°50.985 18.3089 0.06589 0.357865 -0.687152
2010-10-18 07:44:43 51°12.76 2°50.979 18.283 0.06589 0.357876 -0.687152
2010-10-18 07:44:49 51°12.756 2°50.972 18.3057 0.06589 0.357876 -0.687152
2010-10-18 07:44:54 51°12.753 2°50.967 18.2887 0.06589 0.357887 -0.687152
2010-10-18 07:44:58 51°12.751 2°50.962 18.3086 0.06589 0.357893 -0.687152
2010-10-18 07:45:04 51°12.747 2°50.955 18.2977 0.06589 0.357893 -0.721976
2010-10-18 07:45:09 51°12.744 2°50.949 18.3191 0.06589 0.357905 -0.687152
2010-10-18 07:45:14 51°12.741 2°50.944 18.2906 0.06589 0.35791 -0.652328
2010-10-18 07:45:18 51°12.739 2°50.939 18.3044 0.06589 0.35791 -0.687152
2010-10-18 07:45:23 51°12.736 2°50.933 18.3042 0.06589 0.35791 -0.687152
2010-10-18 07:45:29 51°12.733 2°50.926 18.3243 0.06589 0.357916 -0.652328
2010-10-18 07:45:34 51°12.73 2°50.92 18.3129 0.06589 0.357922 -0.687152